Observation data for New Home on 02/14/2020      Previous  Date  Next       Current Mesonet Observations  Soil Data  Daily Summary Page  Observations in Plain Language
KNH1 140600Z 12009KT M03/M04 A3029 RMK A01 T10251035  RH  093%=      5-min Rain = 0
KNH1 140601Z 11010KT M03/M04 A3028 RMK A01 T10251035  RH  093%=      5-min Rain = 0
KNH1 140602Z 11009KT M03/M03 A3029 RMK A01 T10251034  RH  093%=      5-min Rain = 0
KNH1 140603Z 12008KT M03/M04 A3029 RMK A01 T10251035  RH  093%=      5-min Rain = 0
KNH1 140604Z 12009G14KT M03/M04 A3028 RMK A01 T10261035  RH  093%=      5-min Rain = 0
KNH1 140605Z 11011G16KT M03/M04 A3028 RMK A01 T10251035  RH  093%=      5-min Rain = 0
KNH1 140606Z 12008G13KT M03/M04 A3029 RMK A01 T10261035  RH  093%=      5-min Rain = 0
KNH1 140607Z 11011G16KT M03/M04 A3029 RMK A01 T10261036  RH  093%=      5-min Rain = 0
KNH1 140608Z 11012KT M03/M04 A3029 RMK A01 T10261036  RH  093%=      5-min Rain = 0
KNH1 140609Z 11010G15KT M03/M04 A3029 RMK A01 T10251036  RH  093%=      5-min Rain = 0
KNH1 140610Z 11011KT M03/M04 A3029 RMK A01 T10251035  RH  093%=      5-min Rain = 0
KNH1 140611Z 11011KT M03/M04 A3029 RMK A01 T10261036  RH  093%=      5-min Rain = 0
KNH1 140612Z 11012KT M03/M04 A3029 RMK A01 T10261036  RH  093%=      5-min Rain = 0
KNH1 140613Z 11010G15KT M03/M04 A3028 RMK A01 T10261036  RH  093%=      5-min Rain = 0
KNH1 140614Z 11010KT M03/M04 A3028 RMK A01 T10261036  RH  093%=      5-min Rain = 0
KNH1 140615Z 12010KT M03/M04 A3028 RMK A01 T10261037  RH  093%=      5-min Rain = 0
KNH1 140616Z 12009KT M03/M04 A3028 RMK A01 T10261037  RH  093%=      5-min Rain = 0
KNH1 140617Z 11010KT M03/M04 A3028 RMK A01 T10271037  RH  093%=      5-min Rain = 0
KNH1 140618Z 12010KT M03/M04 A3028 RMK A01 T10271037  RH  093%=      5-min Rain = 0
KNH1 140619Z 12011KT M03/M04 A3028 RMK A01 T10271037  RH  093%=      5-min Rain = 0
KNH1 140620Z 12009KT M03/M04 A3028 RMK A01 T10271037  RH  093%=      5-min Rain = 0
KNH1 140621Z 11008KT M03/M04 A3028 RMK A01 T10271037  RH  093%=      5-min Rain = 0
KNH1 140622Z 12011KT M03/M04 A3029 RMK A01 T10271037  RH  093%=      5-min Rain = 0
KNH1 140623Z 12011KT M03/M04 A3029 RMK A01 T10271037  RH  093%=      5-min Rain = 0
KNH1 140624Z 12010KT M03/M04 A3028 RMK A01 T10271037  RH  093%=      5-min Rain = 0
KNH1 140625Z 12010KT M03/M04 A3029 RMK A01 T10271037  RH  093%=      5-min Rain = 0
KNH1 140626Z 12009KT M03/M04 A3029 RMK A01 T10271037  RH  093%=      5-min Rain = 0
KNH1 140627Z 12009KT M03/M04 A3028 RMK A01 T10281038  RH  093%=      5-min Rain = 0
KNH1 140628Z 12008KT M03/M04 A3028 RMK A01 T10281038  RH  093%=      5-min Rain = 0
KNH1 140629Z 11009KT M03/M04 A3028 RMK A01 T10281038  RH  093%=      5-min Rain = 0
KNH1 140630Z 12010KT M03/M04 A3029 RMK A01 T10281038  RH  093%=      5-min Rain = 0
KNH1 140631Z 12007KT M03/M04 A3029 RMK A01 T10281038  RH  093%=      5-min Rain = 0
KNH1 140632Z 12008KT M03/M04 A3029 RMK A01 T10291038  RH  093%=      5-min Rain = 0
KNH1 140633Z 12009KT M03/M04 A3029 RMK A01 T10291039  RH  093%=      5-min Rain = 0
KNH1 140634Z 12009KT M03/M04 A3029 RMK A01 T10291039  RH  093%=      5-min Rain = 0
KNH1 140635Z 12010KT M03/M04 A3028 RMK A01 T10291039  RH  093%=      5-min Rain = 0
KNH1 140636Z 12008G13KT M03/M04 A3029 RMK A01 T10291038  RH  093%=      5-min Rain = 0
KNH1 140637Z 11011KT M03/M04 A3029 RMK A01 T10291039  RH  093%=      5-min Rain = 0
KNH1 140638Z 12009KT M03/M04 A3029 RMK A01 T10291039  RH  093%=      5-min Rain = 0
KNH1 140639Z 12009KT M03/M04 A3029 RMK A01 T10291039  RH  093%=      5-min Rain = 0
KNH1 140640Z 12008KT M03/M04 A3029 RMK A01 T10291039  RH  093%=      5-min Rain = 0
KNH1 140641Z 11010KT M03/M04 A3029 RMK A01 T10291039  RH  093%=      5-min Rain = 0
KNH1 140642Z 12008KT M03/M04 A3029 RMK A01 T10301039  RH  093%=      5-min Rain = 0
KNH1 140643Z 12009KT M03/M04 A3029 RMK A01 T10291039  RH  093%=      5-min Rain = 0
KNH1 140644Z 12010KT M03/M04 A3029 RMK A01 T10301039  RH  093%=      5-min Rain = 0
KNH1 140645Z 12008KT M03/M04 A3029 RMK A01 T10301039  RH  093%=      5-min Rain = 0
KNH1 140646Z 12009KT M03/M04 A3029 RMK A01 T10301039  RH  093%=      5-min Rain = 0
KNH1 140647Z 11008KT M03/M04 A3029 RMK A01 T10301040  RH  093%=      5-min Rain = 0
KNH1 140648Z 12011KT M03/M04 A3029 RMK A01 T10301039  RH  093%=      5-min Rain = 0
KNH1 140649Z 11011KT M03/M04 A3029 RMK A01 T10301039  RH  093%=      5-min Rain = 0
KNH1 140650Z 11009KT M03/M04 A3029 RMK A01 T10301039  RH  093%=      5-min Rain = 0
KNH1 140651Z 11010KT M03/M04 A3029 RMK A01 T10301040  RH  093%=      5-min Rain = 0
KNH1 140652Z 12007KT M03/M04 A3029 RMK A01 T10301040  RH  093%=      5-min Rain = 0
KNH1 140653Z 12008KT M03/M04 A3029 RMK A01 T10311040  RH  093%=      5-min Rain = 0
KNH1 140654Z 11008KT M03/M04 A3029 RMK A01 T10311040  RH  093%=      5-min Rain = 0
KNH1 140655Z 11007KT M03/M04 A3029 RMK A01 T10311040  RH  093%=      5-min Rain = 0
KNH1 140656Z 12010KT M03/M04 A3029 RMK A01 T10311040  RH  093%=      5-min Rain = 0
KNH1 140657Z 13009KT M03/M04 A3029 RMK A01 T10311040  RH  093%=      5-min Rain = 0
KNH1 140658Z 11010KT M03/M04 A3029 RMK A01 T10311040  RH  093%=      5-min Rain = 0
KNH1 140659Z 12009KT M03/M04 A3029 RMK A01 T10311040  RH  094%=      5-min Rain = 0
KNH1 140700Z 11011KT M03/M04 A3029 RMK A01 T10311040  RH  094%=      5-min Rain = 0
KNH1 140701Z 11009KT M03/M04 A3029 RMK A01 T10311040  RH  094%=      5-min Rain = 0
KNH1 140702Z 12009KT M03/M04 A3029 RMK A01 T10311040  RH  093%=      5-min Rain = 0
KNH1 140703Z 11009KT M03/M04 A3029 RMK A01 T10311040  RH  093%=      5-min Rain = 0
KNH1 140704Z 11011KT M03/M04 A3029 RMK A01 T10311041  RH  093%=      5-min Rain = 0
KNH1 140705Z 11011KT M03/M04 A3029 RMK A01 T10311041  RH  093%=      5-min Rain = 0
KNH1 140706Z 11009KT M03/M04 A3029 RMK A01 T10311040  RH  093%=      5-min Rain = 0
KNH1 140707Z 11009KT M03/M04 A3029 RMK A01 T10311041  RH  093%=      5-min Rain = 0
KNH1 140708Z 11009KT M03/M04 A3029 RMK A01 T10321041  RH  093%=      5-min Rain = 0
KNH1 140709Z 11009KT M03/M04 A3029 RMK A01 T10321041  RH  093%=      5-min Rain = 0
KNH1 140710Z 11010KT M03/M04 A3029 RMK A01 T10321041  RH  094%=      5-min Rain = 0
KNH1 140711Z 11009KT M03/M04 A3029 RMK A01 T10321041  RH  094%=      5-min Rain = 0
KNH1 140712Z 11009KT M03/M04 A3029 RMK A01 T10321041  RH  094%=      5-min Rain = 0
KNH1 140713Z 11010KT M03/M04 A3029 RMK A01 T10321041  RH  094%=      5-min Rain = 0
KNH1 140714Z 11010KT M03/M04 A3029 RMK A01 T10321041  RH  094%=      5-min Rain = 0
KNH1 140715Z 12008KT M03/M04 A3029 RMK A01 T10331042  RH  094%=      5-min Rain = 0
KNH1 140716Z 11008KT M03/M04 A3029 RMK A01 T10331041  RH  094%=      5-min Rain = 0
KNH1 140717Z 11009KT M03/M04 A3029 RMK A01 T10331041  RH  094%=      5-min Rain = 0
KNH1 140718Z 11008KT M03/M04 A3029 RMK A01 T10331042  RH  094%=      5-min Rain = 0
KNH1 140719Z 11009KT M03/M04 A3029 RMK A01 T10331042  RH  094%=      5-min Rain = 0
KNH1 140720Z 11009KT M03/M04 A3029 RMK A01 T10331042  RH  094%=      5-min Rain = 0
KNH1 140721Z 11008KT M03/M04 A3029 RMK A01 T10331042  RH  094%=      5-min Rain = 0
KNH1 140722Z 11008KT M03/M04 A3029 RMK A01 T10331042  RH  094%=      5-min Rain = 0
KNH1 140723Z 11008KT M03/M04 A3029 RMK A01 T10341042  RH  094%=      5-min Rain = 0
KNH1 140724Z 11009KT M03/M04 A3029 RMK A01 T10341042  RH  094%=      5-min Rain = 0
KNH1 140725Z 10008KT M03/M04 A3029 RMK A01 T10341042  RH  094%=      5-min Rain = 0
KNH1 140726Z 11008KT M03/M04 A3029 RMK A01 T10341042  RH  094%=      5-min Rain = 0
KNH1 140727Z 11009KT M03/M04 A3029 RMK A01 T10341042  RH  094%=      5-min Rain = 0
KNH1 140728Z 11008KT M03/M04 A3029 RMK A01 T10341042  RH  094%=      5-min Rain = 0
KNH1 140729Z 11010KT M03/M04 A3029 RMK A01 T10341042  RH  094%=      5-min Rain = 0
KNH1 140730Z 11007KT M03/M04 A3029 RMK A01 T10341042  RH  094%=      5-min Rain = 0
KNH1 140731Z 11009KT M04/M04 A303 RMK A01 T10351042  RH  094%=      5-min Rain = 0
KNH1 140732Z 11010KT M04/M04 A303 RMK A01 T10351043  RH  094%=      5-min Rain = 0
KNH1 140733Z 11009KT M04/M04 A3029 RMK A01 T10351042  RH  094%=      5-min Rain = 0
KNH1 140734Z 11010KT M04/M04 A3029 RMK A01 T10351042  RH  094%=      5-min Rain = 0
KNH1 140735Z 11010KT M04/M04 A3029 RMK A01 T10351042  RH  094%=      5-min Rain = 0
KNH1 140736Z 11008KT M04/M04 A3029 RMK A01 T10351042  RH  094%=      5-min Rain = 0
KNH1 140737Z 11008KT M04/M04 A3029 RMK A01 T10351042  RH  095%=      5-min Rain = 0
KNH1 140738Z 12008KT M04/M04 A3029 RMK A01 T10351043  RH  095%=      5-min Rain = 0
KNH1 140739Z 12008KT M04/M04 A3029 RMK A01 T10351043  RH  095%=      5-min Rain = 0
KNH1 140740Z 11008KT M04/M04 A3029 RMK A01 T10351042  RH  095%=      5-min Rain = 0
KNH1 140741Z 12008KT M04/M04 A3029 RMK A01 T10351043  RH  095%=      5-min Rain = 0
KNH1 140742Z 12008KT M04/M04 A3029 RMK A01 T10351043  RH  095%=      5-min Rain = 0
KNH1 140743Z 12007KT M04/M04 A3029 RMK A01 T10351043  RH  095%=      5-min Rain = 0
KNH1 140744Z 12009KT M04/M04 A3029 RMK A01 T10351043  RH  095%=      5-min Rain = 0
KNH1 140745Z 11008KT M04/M04 A3029 RMK A01 T10351043  RH  095%=      5-min Rain = 0
KNH1 140746Z 12008KT M04/M04 A3029 RMK A01 T10361043  RH  095%=      5-min Rain = 0
KNH1 140747Z 12009KT M04/M04 A3029 RMK A01 T10351043  RH  095%=      5-min Rain = 0
KNH1 140748Z 12008KT M04/M04 A3029 RMK A01 T10361043  RH  095%=      5-min Rain = 0
KNH1 140749Z 11008KT M04/M04 A3029 RMK A01 T10361043  RH  095%=      5-min Rain = 0
KNH1 140750Z 11008KT M04/M04 A3029 RMK A01 T10351043  RH  095%=      5-min Rain = 0
KNH1 140751Z 11007KT M04/M04 A3029 RMK A01 T10361043  RH  095%=      5-min Rain = 0
KNH1 140752Z 11009KT M04/M04 A303 RMK A01 T10361043  RH  095%=      5-min Rain = 0
KNH1 140753Z 12008KT M04/M04 A303 RMK A01 T10361043  RH  095%=      5-min Rain = 0
KNH1 140754Z 12007KT M04/M04 A303 RMK A01 T10361043  RH  095%=      5-min Rain = 0
KNH1 140755Z 12007KT M04/M04 A303 RMK A01 T10361043  RH  095%=      5-min Rain = 0
KNH1 140756Z 11008KT M04/M04 A303 RMK A01 T10361043  RH  095%=      5-min Rain = 0
KNH1 140757Z 11008KT M04/M04 A303 RMK A01 T10361043  RH  095%=      5-min Rain = 0
KNH1 140758Z 11009KT M04/M04 A303 RMK A01 T10361043  RH  095%=      5-min Rain = 0
KNH1 140759Z 11008KT M04/M04 A303 RMK A01 T10371044  RH  095%=      5-min Rain = 0
KNH1 140800Z 11008KT M04/M04 A303 RMK A01 T10361043  RH  095%=      5-min Rain = 0
KNH1 140801Z 11007KT M04/M04 A303 RMK A01 T10371044  RH  095%=      5-min Rain = 0
KNH1 140802Z 11007KT M04/M04 A303 RMK A01 T10361043  RH  095%=      5-min Rain = 0
KNH1 140803Z 11006KT M04/M04 A303 RMK A01 T10371044  RH  095%=      5-min Rain = 0
KNH1 140804Z 11006KT M04/M04 A303 RMK A01 T10371044  RH  095%=      5-min Rain = 0
KNH1 140805Z 12008KT M04/M04 A303 RMK A01 T10371044  RH  095%=      5-min Rain = 0
KNH1 140806Z 11007KT M04/M04 A303 RMK A01 T10371044  RH  095%=      5-min Rain = 0
KNH1 140807Z 12006KT M04/M04 A303 RMK A01 T10371044  RH  095%=      5-min Rain = 0
KNH1 140808Z 12007KT M04/M04 A303 RMK A01 T10371044  RH  095%=      5-min Rain = 0
KNH1 140809Z 12007KT M04/M04 A303 RMK A01 T10371044  RH  095%=      5-min Rain = 0
KNH1 140810Z 11007KT M04/M04 A303 RMK A01 T10371044  RH  095%=      5-min Rain = 0
KNH1 140811Z 12009KT M04/M04 A303 RMK A01 T10371044  RH  095%=      5-min Rain = 0
KNH1 140812Z 11009KT M04/M04 A303 RMK A01 T10371044  RH  095%=      5-min Rain = 0
KNH1 140813Z 11008KT M04/M04 A303 RMK A01 T10371044  RH  095%=      5-min Rain = 0
KNH1 140814Z 11008KT M04/M04 A303 RMK A01 T10371044  RH  095%=      5-min Rain = 0
KNH1 140815Z 11008KT M04/M04 A303 RMK A01 T10381044  RH  095%=      5-min Rain = 0
KNH1 140816Z 12007KT M04/M05 A303 RMK A01 T10381045  RH  095%=      5-min Rain = 0
KNH1 140817Z 12007KT M04/M05 A303 RMK A01 T10381045  RH  095%=      5-min Rain = 0
KNH1 140818Z 12007KT M04/M05 A303 RMK A01 T10381045  RH  095%=      5-min Rain = 0
KNH1 140819Z 12005KT M04/M05 A303 RMK A01 T10381045  RH  095%=      5-min Rain = 0
KNH1 140820Z 11007KT M04/M04 A303 RMK A01 T10381044  RH  095%=      5-min Rain = 0
KNH1 140821Z 12008KT M04/M05 A303 RMK A01 T10381045  RH  095%=      5-min Rain = 0
KNH1 140822Z 12007KT M04/M05 A303 RMK A01 T10381045  RH  095%=      5-min Rain = 0
KNH1 140823Z 11007KT M04/M05 A303 RMK A01 T10381045  RH  095%=      5-min Rain = 0
KNH1 140824Z 11006KT M04/M05 A303 RMK A01 T10381045  RH  095%=      5-min Rain = 0
KNH1 140825Z 11007KT M04/M05 A303 RMK A01 T10381045  RH  095%=      5-min Rain = 0
KNH1 140826Z 11006KT M04/M05 A303 RMK A01 T10381045  RH  095%=      5-min Rain = 0
KNH1 140827Z 11007KT M04/M05 A303 RMK A01 T10391045  RH  095%=      5-min Rain = 0
KNH1 140828Z 11008KT M04/M05 A303 RMK A01 T10391045  RH  095%=      5-min Rain = 0
KNH1 140829Z 12006KT M04/M05 A303 RMK A01 T10391045  RH  095%=      5-min Rain = 0
KNH1 140830Z 12006KT M04/M05 A303 RMK A01 T10391045  RH  095%=      5-min Rain = 0
KNH1 140831Z 12007KT M04/M05 A303 RMK A01 T10391045  RH  095%=      5-min Rain = 0
KNH1 140832Z 12005KT M04/M05 A303 RMK A01 T10391045  RH  095%=      5-min Rain = 0
KNH1 140833Z 12007KT M04/M05 A303 RMK A01 T10391045  RH  095%=      5-min Rain = 0
KNH1 140834Z 12006KT M04/M05 A303 RMK A01 T10391045  RH  095%=      5-min Rain = 0
KNH1 140835Z 11006KT M04/M05 A303 RMK A01 T10391045  RH  095%=      5-min Rain = 0
KNH1 140836Z 11006KT M04/M05 A303 RMK A01 T10391045  RH  095%=      5-min Rain = 0
KNH1 140837Z 12005KT M04/M05 A3031 RMK A01 T10381045  RH  095%=      5-min Rain = 0
KNH1 140838Z 12007KT M04/M05 A3031 RMK A01 T10381045  RH  096%=      5-min Rain = 0
KNH1 140839Z 12005KT M04/M05 A3031 RMK A01 T10381045  RH  096%=      5-min Rain = 0
KNH1 140840Z 12006KT M04/M04 A303 RMK A01 T10381044  RH  096%=      5-min Rain = 0
KNH1 140841Z 12005KT M04/M04 A303 RMK A01 T10381044  RH  096%=      5-min Rain = 0
KNH1 140842Z 12006KT M04/M04 A303 RMK A01 T10381044  RH  096%=      5-min Rain = 0
KNH1 140843Z 12005KT M04/M04 A303 RMK A01 T10381044  RH  096%=      5-min Rain = 0
KNH1 140844Z 12005KT M04/M04 A303 RMK A01 T10381044  RH  096%=      5-min Rain = 0
KNH1 140845Z 12004KT M04/M04 A303 RMK A01 T10381044  RH  096%=      5-min Rain = 0
KNH1 140846Z 11005KT M04/M04 A303 RMK A01 T10381044  RH  096%=      5-min Rain = 0
KNH1 140847Z 11006KT M04/M04 A303 RMK A01 T10381044  RH  096%=      5-min Rain = 0
KNH1 140848Z 11007KT M04/M04 A303 RMK A01 T10381044  RH  096%=      5-min Rain = 0
KNH1 140849Z 11008KT M04/M04 A303 RMK A01 T10381044  RH  096%=      5-min Rain = 0
KNH1 140850Z 12007KT M04/M04 A303 RMK A01 T10381044  RH  096%=      5-min Rain = 0
KNH1 140851Z 12008KT M04/M04 A303 RMK A01 T10381044  RH  096%=      5-min Rain = 0
KNH1 140852Z 12008KT M04/M04 A303 RMK A01 T10381044  RH  096%=      5-min Rain = 0
KNH1 140853Z 12007KT M04/M04 A303 RMK A01 T10381044  RH  095%=      5-min Rain = 0
KNH1 140854Z 11007KT M04/M04 A303 RMK A01 T10381044  RH  095%=      5-min Rain = 0
KNH1 140855Z 12006KT M04/M04 A303 RMK A01 T10381044  RH  095%=      5-min Rain = 0
KNH1 140856Z 12006KT M04/M04 A303 RMK A01 T10381044  RH  095%=      5-min Rain = 0
KNH1 140857Z 11005KT M04/M05 A303 RMK A01 T10381045  RH  095%=      5-min Rain = 0
KNH1 140858Z 12007KT M04/M05 A303 RMK A01 T10381045  RH  095%=      5-min Rain = 0
KNH1 140859Z 12007KT M04/M05 A303 RMK A01 T10391045  RH  095%=      5-min Rain = 0
KNH1 140900Z 11007KT M04/M05 A303 RMK A01 T10391045  RH  095%=      5-min Rain = 0
KNH1 140901Z 11006KT M04/M05 A303 RMK A01 T10391045  RH  095%=      5-min Rain = 0
KNH1 140902Z 11007KT M04/M05 A303 RMK A01 T10391045  RH  095%=      5-min Rain = 0
KNH1 140903Z 11007KT M04/M05 A303 RMK A01 T10391045  RH  095%=      5-min Rain = 0
KNH1 140904Z 11008KT M04/M05 A303 RMK A01 T10391045  RH  095%=      5-min Rain = 0
KNH1 140905Z 12007KT M04/M05 A303 RMK A01 T10391045  RH  095%=      5-min Rain = 0
KNH1 140906Z 12005KT M04/M05 A303 RMK A01 T10391045  RH  095%=      5-min Rain = 0
KNH1 140907Z 11005KT M04/M05 A303 RMK A01 T10391045  RH  096%=      5-min Rain = 0
KNH1 140908Z 12005KT M04/M05 A303 RMK A01 T10391045  RH  096%=      5-min Rain = 0
KNH1 140909Z 12007KT M04/M05 A303 RMK A01 T10391045  RH  096%=      5-min Rain = 0
KNH1 140910Z 12005KT M04/M05 A303 RMK A01 T10391045  RH  096%=      5-min Rain = 0
KNH1 140911Z 12006KT M04/M05 A303 RMK A01 T10381045  RH  096%=      5-min Rain = 0
KNH1 140912Z 12007KT M04/M04 A303 RMK A01 T10381044  RH  096%=      5-min Rain = 0
KNH1 140913Z 13007KT M04/M04 A303 RMK A01 T10381044  RH  096%=      5-min Rain = 0
KNH1 140914Z 12006KT M04/M05 A303 RMK A01 T10381045  RH  096%=      5-min Rain = 0
KNH1 140915Z 13004KT M04/M04 A303 RMK A01 T10381044  RH  096%=      5-min Rain = 0
KNH1 140916Z 12004KT M04/M04 A303 RMK A01 T10381044  RH  096%=      5-min Rain = 0
KNH1 140917Z 12007KT M04/M04 A303 RMK A01 T10381044  RH  096%=      5-min Rain = 0
KNH1 140918Z 13004KT M04/M04 A303 RMK A01 T10381044  RH  096%=      5-min Rain = 0
KNH1 140919Z 12007KT M04/M04 A303 RMK A01 T10371044  RH  096%=      5-min Rain = 0
KNH1 140920Z 12006KT M04/M04 A303 RMK A01 T10371043  RH  095%=      5-min Rain = 0
KNH1 140921Z 12006KT M04/M04 A303 RMK A01 T10371044  RH  095%=      5-min Rain = 0
KNH1 140922Z 12007KT M04/M04 A303 RMK A01 T10371044  RH  095%=      5-min Rain = 0
KNH1 140923Z 12005KT M04/M04 A303 RMK A01 T10371044  RH  095%=      5-min Rain = 0
KNH1 140924Z 12008KT M04/M04 A303 RMK A01 T10371044  RH  095%=      5-min Rain = 0
KNH1 140925Z 12006KT M04/M04 A303 RMK A01 T10371044  RH  095%=      5-min Rain = 0
KNH1 140926Z 12006KT M04/M04 A303 RMK A01 T10371044  RH  095%=      5-min Rain = 0
KNH1 140927Z 12007KT M04/M04 A303 RMK A01 T10371044  RH  095%=      5-min Rain = 0
KNH1 140928Z 12005KT M04/M04 A303 RMK A01 T10371044  RH  095%=      5-min Rain = 0
KNH1 140929Z 12004KT M04/M04 A303 RMK A01 T10371044  RH  095%=      5-min Rain = 0
KNH1 140930Z 12005KT M04/M04 A303 RMK A01 T10371044  RH  095%=      5-min Rain = 0
KNH1 140931Z 12005KT M04/M04 A303 RMK A01 T10361043  RH  095%=      5-min Rain = 0
KNH1 140932Z 12006KT M04/M04 A303 RMK A01 T10371043  RH  095%=      5-min Rain = 0
KNH1 140933Z 12006KT M04/M04 A303 RMK A01 T10361043  RH  095%=      5-min Rain = 0
KNH1 140934Z 12007KT M04/M04 A303 RMK A01 T10361043  RH  095%=      5-min Rain = 0
KNH1 140935Z 11006KT M04/M04 A303 RMK A01 T10361044  RH  095%=      5-min Rain = 0
KNH1 140936Z 12007KT M04/M04 A303 RMK A01 T10371044  RH  095%=      5-min Rain = 0
KNH1 140937Z 12007KT M04/M04 A303 RMK A01 T10361044  RH  095%=      5-min Rain = 0
KNH1 140938Z 12006KT M04/M04 A303 RMK A01 T10361044  RH  095%=      5-min Rain = 0
KNH1 140939Z 11005KT M04/M04 A303 RMK A01 T10361044  RH  095%=      5-min Rain = 0
KNH1 140940Z 12007KT M04/M04 A303 RMK A01 T10361044  RH  095%=      5-min Rain = 0
KNH1 140941Z 12007KT M04/M04 A303 RMK A01 T10361044  RH  095%=      5-min Rain = 0
KNH1 140942Z 11005KT M04/M04 A303 RMK A01 T10361044  RH  095%=      5-min Rain = 0
KNH1 140943Z 11004KT M04/M04 A303 RMK A01 T10361044  RH  095%=      5-min Rain = 0
KNH1 140944Z 12007KT M04/M04 A303 RMK A01 T10361044  RH  095%=      5-min Rain = 0
KNH1 140945Z 11006KT M04/M04 A303 RMK A01 T10371044  RH  095%=      5-min Rain = 0
KNH1 140946Z 12006KT M04/M04 A303 RMK A01 T10361044  RH  094%=      5-min Rain = 0
KNH1 140947Z 12005KT M04/M04 A303 RMK A01 T10371044  RH  094%=      5-min Rain = 0
KNH1 140948Z 12006KT M04/M04 A303 RMK A01 T10361044  RH  094%=      5-min Rain = 0
KNH1 140949Z 12004KT M04/M05 A303 RMK A01 T10371045  RH  094%=      5-min Rain = 0
KNH1 140950Z 12007KT M04/M05 A303 RMK A01 T10371045  RH  094%=      5-min Rain = 0
KNH1 140951Z 12007KT M04/M05 A303 RMK A01 T10371045  RH  094%=      5-min Rain = 0
KNH1 140952Z 11005KT M04/M05 A303 RMK A01 T10371045  RH  094%=      5-min Rain = 0
KNH1 140953Z 12005KT M04/M05 A303 RMK A01 T10371045  RH  094%=      5-min Rain = 0
KNH1 140954Z 12005KT M04/M05 A303 RMK A01 T10371045  RH  094%=      5-min Rain = 0
KNH1 140955Z 12005KT M04/M05 A303 RMK A01 T10371045  RH  094%=      5-min Rain = 0
KNH1 140956Z 12007KT M04/M05 A303 RMK A01 T10371045  RH  094%=      5-min Rain = 0
KNH1 140957Z 12006KT M04/M05 A303 RMK A01 T10381046  RH  094%=      5-min Rain = 0
KNH1 140958Z 12006KT M04/M05 A303 RMK A01 T10381046  RH  094%=      5-min Rain = 0
KNH1 140959Z 12006KT M04/M05 A303 RMK A01 T10381046  RH  094%=      5-min Rain = 0
KNH1 141000Z 12007KT M04/M05 A3031 RMK A01 T10381046  RH  094%=      5-min Rain = 0
KNH1 141001Z 12007KT M04/M05 A3031 RMK A01 T10381045  RH  094%=      5-min Rain = 0
KNH1 141002Z 12006KT M04/M05 A3031 RMK A01 T10381046  RH  094%=      5-min Rain = 0
KNH1 141003Z 11006KT M04/M05 A3031 RMK A01 T10381046  RH  094%=      5-min Rain = 0
KNH1 141004Z 11007KT M04/M05 A3031 RMK A01 T10381045  RH  094%=      5-min Rain = 0
KNH1 141005Z 12004KT M04/M05 A3031 RMK A01 T10381045  RH  095%=      5-min Rain = 0
KNH1 141006Z 11006KT M04/M05 A303 RMK A01 T10381045  RH  094%=      5-min Rain = 0
KNH1 141007Z 12006KT M04/M05 A303 RMK A01 T10381045  RH  095%=      5-min Rain = 0
KNH1 141008Z 12007KT M04/M05 A303 RMK A01 T10381045  RH  095%=      5-min Rain = 0
KNH1 141009Z 12007KT M04/M05 A303 RMK A01 T10381045  RH  095%=      5-min Rain = 0
KNH1 141010Z 12005KT M04/M05 A303 RMK A01 T10381046  RH  094%=      5-min Rain = 0
KNH1 141011Z 12004KT M04/M05 A303 RMK A01 T10381045  RH  094%=      5-min Rain = 0
KNH1 141012Z 12007KT M04/M05 A303 RMK A01 T10381045  RH  094%=      5-min Rain = 0
KNH1 141013Z 11007KT M04/M05 A303 RMK A01 T10381046  RH  094%=      5-min Rain = 0
KNH1 141014Z 12005KT M04/M05 A303 RMK A01 T10381046  RH  094%=      5-min Rain = 0
KNH1 141015Z 11004KT M04/M05 A303 RMK A01 T10381046  RH  094%=      5-min Rain = 0
KNH1 141016Z 12005KT M04/M05 A303 RMK A01 T10381046  RH  094%=      5-min Rain = 0
KNH1 141017Z 12004KT M04/M05 A303 RMK A01 T10381046  RH  094%=      5-min Rain = 0
KNH1 141018Z 12007KT M04/M05 A303 RMK A01 T10381046  RH  094%=      5-min Rain = 0
KNH1 141019Z 12007KT M04/M05 A303 RMK A01 T10381046  RH  094%=      5-min Rain = 0
KNH1 141020Z 12006KT M04/M05 A303 RMK A01 T10381046  RH  094%=      5-min Rain = 0
KNH1 141021Z 12007KT M04/M05 A303 RMK A01 T10381046  RH  094%=      5-min Rain = 0
KNH1 141022Z 11006KT M04/M05 A303 RMK A01 T10381046  RH  094%=      5-min Rain = 0
KNH1 141023Z 12005KT M04/M05 A303 RMK A01 T10381046  RH  094%=      5-min Rain = 0
KNH1 141024Z 11007KT M04/M05 A303 RMK A01 T10381046  RH  094%=      5-min Rain = 0
KNH1 141025Z 11007KT M04/M05 A303 RMK A01 T10381047  RH  094%=      5-min Rain = 0
KNH1 141026Z 11007KT M04/M05 A303 RMK A01 T10391047  RH  094%=      5-min Rain = 0
KNH1 141027Z 11006KT M04/M05 A303 RMK A01 T10391047  RH  094%=      5-min Rain = 0
KNH1 141028Z 11004KT M04/M05 A303 RMK A01 T10391048  RH  094%=      5-min Rain = 0
KNH1 141029Z 11005KT M04/M05 A303 RMK A01 T10391048  RH  094%=      5-min Rain = 0
KNH1 141030Z 11006KT M04/M05 A303 RMK A01 T10391048  RH  094%=      5-min Rain = 0
KNH1 141031Z 11007KT M04/M05 A303 RMK A01 T10391048  RH  094%=      5-min Rain = 0
KNH1 141032Z 11007KT M04/M05 A303 RMK A01 T10391048  RH  094%=      5-min Rain = 0
KNH1 141033Z 12006KT M04/M05 A303 RMK A01 T10401049  RH  094%=      5-min Rain = 0
KNH1 141034Z 11004KT M04/M05 A303 RMK A01 T10401048  RH  094%=      5-min Rain = 0
KNH1 141035Z 11004KT M04/M05 A303 RMK A01 T10391048  RH  094%=      5-min Rain = 0
KNH1 141036Z 11006KT M04/M05 A303 RMK A01 T10391048  RH  094%=      5-min Rain = 0
KNH1 141037Z 12006KT M04/M05 A303 RMK A01 T10391048  RH  094%=      5-min Rain = 0
KNH1 141038Z 11006KT M04/M05 A303 RMK A01 T10391048  RH  093%=      5-min Rain = 0
KNH1 141039Z 10007KT M04/M05 A303 RMK A01 T10391048  RH  093%=      5-min Rain = 0
KNH1 141040Z 11008KT M04/M05 A303 RMK A01 T10391049  RH  093%=      5-min Rain = 0
KNH1 141041Z 12008KT M04/M05 A303 RMK A01 T10401049  RH  093%=      5-min Rain = 0
KNH1 141042Z 11007KT M04/M05 A303 RMK A01 T10401050  RH  093%=      5-min Rain = 0
KNH1 141043Z 12005KT M04/M05 A303 RMK A01 T10401050  RH  093%=      5-min Rain = 0
KNH1 141044Z 12007KT M04/M05 A303 RMK A01 T10401050  RH  093%=      5-min Rain = 0
KNH1 141045Z 12007KT M04/M05 A303 RMK A01 T10401049  RH  093%=      5-min Rain = 0
KNH1 141046Z 11007KT M04/M05 A303 RMK A01 T10391049  RH  093%=      5-min Rain = 0
KNH1 141047Z 12007KT M04/M05 A303 RMK A01 T10391049  RH  093%=      5-min Rain = 0
KNH1 141048Z 11006KT M04/M05 A303 RMK A01 T10391050  RH  092%=      5-min Rain = 0
KNH1 141049Z 11008KT M04/M05 A303 RMK A01 T10401050  RH  092%=      5-min Rain = 0
KNH1 141050Z 11007KT M04/M05 A303 RMK A01 T10401051  RH  092%=      5-min Rain = 0
KNH1 141051Z 12007KT M04/M05 A303 RMK A01 T10391050  RH  092%=      5-min Rain = 0
KNH1 141052Z 12007KT M04/M05 A303 RMK A01 T10391050  RH  092%=      5-min Rain = 0
KNH1 141053Z 11008KT M04/M05 A303 RMK A01 T10401050  RH  092%=      5-min Rain = 0
KNH1 141054Z 11006KT M04/M05 A303 RMK A01 T10401051  RH  092%=      5-min Rain = 0
KNH1 141055Z 11005KT M04/M05 A303 RMK A01 T10401051  RH  092%=      5-min Rain = 0
KNH1 141056Z 11007KT M04/M05 A303 RMK A01 T10401050  RH  092%=      5-min Rain = 0
KNH1 141057Z 11008KT M04/M05 A303 RMK A01 T10391050  RH  092%=      5-min Rain = 0
KNH1 141058Z 12007KT M04/M05 A303 RMK A01 T10401051  RH  092%=      5-min Rain = 0
KNH1 141059Z 12006KT M04/M05 A303 RMK A01 T10411052  RH  092%=      5-min Rain = 0
KNH1 141100Z 11006KT M04/M05 A303 RMK A01 T10411052  RH  092%=      5-min Rain = 0
KNH1 141101Z 10007KT M04/M05 A303 RMK A01 T10411052  RH  092%=      5-min Rain = 0
KNH1 141102Z 11007KT M04/M05 A303 RMK A01 T10401052  RH  092%=      5-min Rain = 0
KNH1 141103Z 11006KT M04/M05 A303 RMK A01 T10401052  RH  092%=      5-min Rain = 0
KNH1 141104Z 11007KT M04/M05 A303 RMK A01 T10401052  RH  092%=      5-min Rain = 0
KNH1 141105Z 11007KT M04/M05 A303 RMK A01 T10401051  RH  092%=      5-min Rain = 0
KNH1 141106Z 11007KT M04/M05 A303 RMK A01 T10401051  RH  092%=      5-min Rain = 0
KNH1 141107Z 11006KT M04/M05 A303 RMK A01 T10401051  RH  092%=      5-min Rain = 0
KNH1 141108Z 12007KT M04/M05 A303 RMK A01 T10401051  RH  092%=      5-min Rain = 0
KNH1 141109Z 11005KT M04/M05 A303 RMK A01 T10401051  RH  092%=      5-min Rain = 0
KNH1 141110Z 10007KT M04/M05 A3031 RMK A01 T10401051  RH  092%=      5-min Rain = 0
KNH1 141111Z 11005KT M04/M05 A303 RMK A01 T10391051  RH  092%=      5-min Rain = 0
KNH1 141112Z 10006KT M04/M05 A303 RMK A01 T10391051  RH  092%=      5-min Rain = 0
KNH1 141113Z 11006KT M04/M05 A303 RMK A01 T10401051  RH  092%=      5-min Rain = 0
KNH1 141114Z 10007KT M04/M05 A3031 RMK A01 T10401051  RH  092%=      5-min Rain = 0
KNH1 141115Z 10006KT M04/M05 A3031 RMK A01 T10401051  RH  092%=      5-min Rain = 0
KNH1 141116Z 10006KT M04/M05 A3031 RMK A01 T10401052  RH  092%=      5-min Rain = 0
KNH1 141117Z 11005KT M04/M05 A3031 RMK A01 T10401051  RH  092%=      5-min Rain = 0
KNH1 141118Z 10006KT M04/M05 A3031 RMK A01 T10391051  RH  092%=      5-min Rain = 0
KNH1 141119Z 10006KT M04/M05 A3031 RMK A01 T10401051  RH  092%=      5-min Rain = 0
KNH1 141120Z 10007KT M04/M05 A303 RMK A01 T10401052  RH  092%=      5-min Rain = 0
KNH1 141121Z 11006KT M04/M05 A303 RMK A01 T10411053  RH  092%=      5-min Rain = 0
KNH1 141122Z 11007KT M04/M05 A303 RMK A01 T10401052  RH  092%=      5-min Rain = 0
KNH1 141123Z 10006KT M04/M05 A303 RMK A01 T10401052  RH  092%=      5-min Rain = 0
KNH1 141124Z 11005KT M04/M05 A303 RMK A01 T10411053  RH  091%=      5-min Rain = 0
KNH1 141125Z 11005KT M04/M05 A3031 RMK A01 T10411053  RH  091%=      5-min Rain = 0
KNH1 141126Z 10006KT M04/M05 A3031 RMK A01 T10411052  RH  091%=      5-min Rain = 0
KNH1 141127Z 11006KT M04/M05 A3031 RMK A01 T10411053  RH  091%=      5-min Rain = 0
KNH1 141128Z 11006KT M04/M05 A3031 RMK A01 T10411053  RH  091%=      5-min Rain = 0
KNH1 141129Z 11007KT M04/M05 A3031 RMK A01 T10411053  RH  091%=      5-min Rain = 0
KNH1 141130Z 11006KT M04/M05 A3031 RMK A01 T10411054  RH  091%=      5-min Rain = 0
KNH1 141131Z 11006KT M04/M05 A3031 RMK A01 T10411054  RH  091%=      5-min Rain = 0
KNH1 141132Z 11006KT M04/M05 A3031 RMK A01 T10411054  RH  091%=      5-min Rain = 0
KNH1 141133Z 11006KT M04/M05 A3031 RMK A01 T10411054  RH  091%=      5-min Rain = 0
KNH1 141134Z 11005KT M04/M05 A3031 RMK A01 T10411054  RH  091%=      5-min Rain = 0
KNH1 141135Z 11005KT M04/M05 A3031 RMK A01 T10411054  RH  091%=      5-min Rain = 0
KNH1 141136Z 11006KT M04/M05 A3031 RMK A01 T10411054  RH  091%=      5-min Rain = 0
KNH1 141137Z 11007KT M04/M05 A3031 RMK A01 T10411053  RH  091%=      5-min Rain = 0
KNH1 141138Z 11007KT M04/M05 A3031 RMK A01 T10411054  RH  090%=      5-min Rain = 0
KNH1 141139Z 11006KT M04/M06 A3031 RMK A01 T10411055  RH  090%=      5-min Rain = 0
KNH1 141140Z 11005KT M04/M06 A3031 RMK A01 T10411055  RH  090%=      5-min Rain = 0
KNH1 141141Z 10005KT M04/M06 A3031 RMK A01 T10411055  RH  090%=      5-min Rain = 0
KNH1 141142Z 11006KT M04/M05 A3031 RMK A01 T10411054  RH  091%=      5-min Rain = 0
KNH1 141143Z 11006KT M04/M05 A3031 RMK A01 T10411054  RH  091%=      5-min Rain = 0
KNH1 141144Z 11007KT M04/M05 A3031 RMK A01 T10411054  RH  090%=      5-min Rain = 0
KNH1 141145Z 11006KT M04/M06 A3031 RMK A01 T10411055  RH  090%=      5-min Rain = 0
KNH1 141146Z 11007KT M04/M06 A3031 RMK A01 T10411055  RH  090%=      5-min Rain = 0
KNH1 141147Z 11007KT M04/M06 A3031 RMK A01 T10411055  RH  090%=      5-min Rain = 0
KNH1 141148Z 11007KT M04/M06 A3031 RMK A01 T10411055  RH  090%=      5-min Rain = 0
KNH1 141149Z 11007KT M04/M06 A3031 RMK A01 T10411055  RH  090%=      5-min Rain = 0
KNH1 141150Z 10006KT M04/M06 A3031 RMK A01 T10411056  RH  090%=      5-min Rain = 0
KNH1 141151Z 11006KT M04/M06 A3031 RMK A01 T10421056  RH  090%=      5-min Rain = 0
KNH1 141152Z 11005KT M04/M06 A3031 RMK A01 T10411056  RH  090%=      5-min Rain = 0
KNH1 141153Z 10006KT M04/M06 A3031 RMK A01 T10421056  RH  090%=      5-min Rain = 0
KNH1 141154Z 10007KT M04/M06 A3031 RMK A01 T10411056  RH  090%=      5-min Rain = 0
KNH1 141155Z 10008KT M04/M06 A3031 RMK A01 T10421056  RH  090%=      5-min Rain = 0
KNH1 141156Z 11006KT M04/M06 A3031 RMK A01 T10411056  RH  090%=      5-min Rain = 0
KNH1 141157Z 11006KT M04/M06 A3031 RMK A01 T10421056  RH  090%=      5-min Rain = 0
KNH1 141158Z 10005KT M04/M06 A3031 RMK A01 T10411056  RH  089%=      5-min Rain = 0
KNH1 141159Z 11005KT M04/M06 A3031 RMK A01 T10411056  RH  089%=      5-min Rain = 0
KNH1 141200Z 10005KT M04/M06 A3031 RMK A01 T10411056  RH  089%=      5-min Rain = 0
KNH1 141201Z 10005KT M04/M06 A3031 RMK A01 T10421057  RH  089%=      5-min Rain = 0
KNH1 141202Z 10006KT M04/M06 A3031 RMK A01 T10421057  RH  089%=      5-min Rain = 0
KNH1 141203Z 10004KT M04/M06 A3031 RMK A01 T10421057  RH  089%=      5-min Rain = 0
KNH1 141204Z 10006KT M04/M06 A3031 RMK A01 T10421057  RH  090%=      5-min Rain = 0
KNH1 141205Z 10006KT M04/M06 A3031 RMK A01 T10421056  RH  090%=      5-min Rain = 0
KNH1 141206Z 10006KT M04/M06 A3031 RMK A01 T10411056  RH  090%=      5-min Rain = 0
KNH1 141207Z 11006KT M04/M06 A3031 RMK A01 T10421056  RH  090%=      5-min Rain = 0
KNH1 141208Z 11006KT M04/M06 A3031 RMK A01 T10411056  RH  090%=      5-min Rain = 0
KNH1 141209Z 11005KT M04/M06 A3031 RMK A01 T10411056  RH  090%=      5-min Rain = 0
KNH1 141210Z 11006KT M04/M06 A3031 RMK A01 T10411056  RH  089%=      5-min Rain = 0
KNH1 141211Z 11004KT M04/M06 A3031 RMK A01 T10411056  RH  089%=      5-min Rain = 0
KNH1 141212Z 12005KT M04/M06 A3031 RMK A01 T10421056  RH  090%=      5-min Rain = 0
KNH1 141213Z 12005KT M04/M06 A3031 RMK A01 T10421056  RH  090%=      5-min Rain = 0
KNH1 141214Z 11005KT M04/M06 A3031 RMK A01 T10411055  RH  090%=      5-min Rain = 0
KNH1 141215Z 11004KT M04/M06 A3031 RMK A01 T10411055  RH  090%=      5-min Rain = 0
KNH1 141216Z 11004KT M04/M06 A3031 RMK A01 T10411055  RH  090%=      5-min Rain = 0
KNH1 141217Z 11005KT M04/M05 A3031 RMK A01 T10411054  RH  090%=      5-min Rain = 0
KNH1 141218Z 11005KT M04/M05 A3031 RMK A01 T10411054  RH  090%=      5-min Rain = 0
KNH1 141219Z 11005KT M04/M05 A3031 RMK A01 T10411054  RH  090%=      5-min Rain = 0
KNH1 141220Z 11005KT M04/M05 A3031 RMK A01 T10401054  RH  090%=      5-min Rain = 0
KNH1 141221Z 11006KT M04/M06 A3031 RMK A01 T10411055  RH  090%=      5-min Rain = 0
KNH1 141222Z 12006KT M04/M06 A3031 RMK A01 T10411056  RH  089%=      5-min Rain = 0
KNH1 141223Z 11005KT M04/M06 A3031 RMK A01 T10411057  RH  089%=      5-min Rain = 0
KNH1 141224Z 11005KT M04/M06 A3031 RMK A01 T10421057  RH  089%=      5-min Rain = 0
KNH1 141225Z 11007KT M04/M06 A3031 RMK A01 T10411056  RH  089%=      5-min Rain = 0
KNH1 141226Z 11006KT M04/M06 A3031 RMK A01 T10411057  RH  089%=      5-min Rain = 0
KNH1 141227Z 12005KT M04/M06 A3031 RMK A01 T10421057  RH  089%=      5-min Rain = 0
KNH1 141228Z 12006KT M04/M06 A3031 RMK A01 T10421057  RH  089%=      5-min Rain = 0
KNH1 141229Z 12006KT M04/M06 A3031 RMK A01 T10421057  RH  089%=      5-min Rain = 0
KNH1 141230Z 13005KT M04/M06 A3031 RMK A01 T10421057  RH  089%=      5-min Rain = 0
KNH1 141231Z 13006KT M04/M06 A3031 RMK A01 T10421057  RH  089%=      5-min Rain = 0
KNH1 141232Z 12005KT M04/M06 A3031 RMK A01 T10421057  RH  089%=      5-min Rain = 0
KNH1 141233Z 11006KT M04/M06 A3031 RMK A01 T10421057  RH  089%=      5-min Rain = 0
KNH1 141234Z 12006KT M04/M06 A3031 RMK A01 T10421057  RH  090%=      5-min Rain = 0
KNH1 141235Z 12005KT M04/M06 A3031 RMK A01 T10421056  RH  090%=      5-min Rain = 0
KNH1 141236Z 13005KT M04/M06 A3031 RMK A01 T10421056  RH  090%=      5-min Rain = 0
KNH1 141237Z 12006KT M04/M06 A3031 RMK A01 T10421056  RH  090%=      5-min Rain = 0
KNH1 141238Z 13004KT M04/M06 A3031 RMK A01 T10421056  RH  090%=      5-min Rain = 0
KNH1 141239Z 11004KT M04/M06 A3031 RMK A01 T10421056  RH  090%=      5-min Rain = 0
KNH1 141240Z 11005KT M04/M06 A3031 RMK A01 T10421056  RH  090%=      5-min Rain = 0
KNH1 141241Z 12004KT M04/M06 A3031 RMK A01 T10421056  RH  090%=      5-min Rain = 0
KNH1 141242Z 12007KT M04/M06 A3031 RMK A01 T10421055  RH  091%=      5-min Rain = 0
KNH1 141243Z 11005KT M04/M06 A3031 RMK A01 T10411055  RH  090%=      5-min Rain = 0
KNH1 141244Z 12006KT M04/M06 A3031 RMK A01 T10411055  RH  090%=      5-min Rain = 0
KNH1 141245Z 12006KT M04/M06 A3031 RMK A01 T10421055  RH  090%=      5-min Rain = 0
KNH1 141246Z 11006KT M04/M06 A3031 RMK A01 T10421056  RH  090%=      5-min Rain = 0
KNH1 141247Z 12005KT M04/M06 A3031 RMK A01 T10421056  RH  090%=      5-min Rain = 0
KNH1 141248Z 12006KT M04/M06 A3031 RMK A01 T10421056  RH  090%=      5-min Rain = 0
KNH1 141249Z 12005KT M04/M06 A3031 RMK A01 T10421056  RH  090%=      5-min Rain = 0
KNH1 141250Z 12004KT M04/M06 A3031 RMK A01 T10421056  RH  090%=      5-min Rain = 0
KNH1 141251Z 12005KT M04/M06 A3031 RMK A01 T10421056  RH  090%=      5-min Rain = 0
KNH1 141252Z 12007KT M04/M06 A3031 RMK A01 T10421055  RH  091%=      5-min Rain = 0
KNH1 141253Z 13005KT M04/M06 A3031 RMK A01 T10421056  RH  091%=      5-min Rain = 0
KNH1 141254Z 12005KT M04/M06 A3031 RMK A01 T10431056  RH  090%=      5-min Rain = 0
KNH1 141255Z 11006KT M04/M06 A3031 RMK A01 T10431056  RH  091%=      5-min Rain = 0
KNH1 141256Z 11005KT M04/M06 A3031 RMK A01 T10431056  RH  091%=      5-min Rain = 0
KNH1 141257Z 12004KT M04/M06 A3031 RMK A01 T10431056  RH  091%=      5-min Rain = 0
KNH1 141258Z 12005KT M04/M06 A3031 RMK A01 T10431056  RH  091%=      5-min Rain = 0
KNH1 141259Z 12005KT M04/M06 A3031 RMK A01 T10431055  RH  091%=      5-min Rain = 0
KNH1 141300Z 12006KT M04/M06 A3031 RMK A01 T10431055  RH  091%=      5-min Rain = 0
KNH1 141301Z 12006KT M04/M06 A3031 RMK A01 T10431055  RH  091%=      5-min Rain = 0
KNH1 141302Z 12006KT M04/M06 A3031 RMK A01 T10431055  RH  091%=      5-min Rain = 0
KNH1 141303Z 12004KT M04/M06 A3031 RMK A01 T10431056  RH  091%=      5-min Rain = 0
KNH1 141304Z 12004KT M04/M06 A3031 RMK A01 T10431055  RH  091%=      5-min Rain = 0
KNH1 141305Z 12005KT M04/M06 A3031 RMK A01 T10431055  RH  091%=      5-min Rain = 0
KNH1 141306Z 13005KT M04/M06 A3031 RMK A01 T10431055  RH  091%=      5-min Rain = 0
KNH1 141307Z 11003KT M04/M06 A3031 RMK A01 T10431055  RH  091%=      5-min Rain = 0
KNH1 141308Z 11006KT M04/M05 A3031 RMK A01 T10421054  RH  091%=      5-min Rain = 0
KNH1 141309Z 11006KT M04/M06 A3031 RMK A01 T10421055  RH  091%=      5-min Rain = 0
KNH1 141310Z 12006KT M04/M06 A3031 RMK A01 T10431056  RH  091%=      5-min Rain = 0
KNH1 141311Z 11005KT M04/M06 A3031 RMK A01 T10431056  RH  091%=      5-min Rain = 0
KNH1 141312Z 12005KT M04/M06 A3031 RMK A01 T10431056  RH  091%=      5-min Rain = 0
KNH1 141313Z 11004KT M04/M06 A3031 RMK A01 T10431055  RH  091%=      5-min Rain = 0
KNH1 141314Z 13003KT M04/M06 A3031 RMK A01 T10431055  RH  092%=      5-min Rain = 0
KNH1 141315Z 12005KT M04/M05 A3032 RMK A01 T10431054  RH  092%=      5-min Rain = 0
KNH1 141316Z 12005KT M04/M05 A3032 RMK A01 T10431054  RH  092%=      5-min Rain = 0
KNH1 141317Z 13004KT M04/M05 A3032 RMK A01 T10431054  RH  092%=      5-min Rain = 0
KNH1 141318Z 12004KT M04/M06 A3032 RMK A01 T10431055  RH  092%=      5-min Rain = 0
KNH1 141319Z 13005KT M04/M06 A3032 RMK A01 T10431055  RH  091%=      5-min Rain = 0
KNH1 141320Z 12004KT M04/M06 A3032 RMK A01 T10431055  RH  092%=      5-min Rain = 0
KNH1 141321Z 12004KT M04/M05 A3032 RMK A01 T10431054  RH  092%=      5-min Rain = 0
KNH1 141322Z 12006KT M04/M05 A3032 RMK A01 T10431054  RH  092%=      5-min Rain = 0
KNH1 141323Z 13005KT M04/M06 A3032 RMK A01 T10431055  RH  092%=      5-min Rain = 0
KNH1 141324Z 12005KT M04/M06 A3032 RMK A01 T10431055  RH  092%=      5-min Rain = 0
KNH1 141325Z 13005KT M04/M06 A3032 RMK A01 T10431055  RH  091%=      5-min Rain = 0
KNH1 141326Z 12005KT M04/M06 A3032 RMK A01 T10431055  RH  092%=      5-min Rain = 0
KNH1 141327Z 12005KT M04/M06 A3032 RMK A01 T10431055  RH  092%=      5-min Rain = 0
KNH1 141328Z 12005KT M04/M06 A3032 RMK A01 T10431055  RH  092%=      5-min Rain = 0
KNH1 141329Z 12006KT M04/M06 A3032 RMK A01 T10431055  RH  092%=      5-min Rain = 0
KNH1 141330Z 12004KT M04/M05 A3032 RMK A01 T10431054  RH  092%=      5-min Rain = 0
KNH1 141331Z 12004KT M04/M05 A3032 RMK A01 T10431054  RH  092%=      5-min Rain = 0
KNH1 141332Z 12005KT M04/M05 A3032 RMK A01 T10431054  RH  092%=      5-min Rain = 0
KNH1 141333Z 13004KT M04/M05 A3032 RMK A01 T10431054  RH  092%=      5-min Rain = 0
KNH1 141334Z 13004KT M04/M05 A3032 RMK A01 T10431053  RH  092%=      5-min Rain = 0
KNH1 141335Z 11005KT M04/M05 A3032 RMK A01 T10421053  RH  092%=      5-min Rain = 0
KNH1 141336Z 12006KT M04/M05 A3032 RMK A01 T10431054  RH  092%=      5-min Rain = 0
KNH1 141337Z 13004KT M04/M05 A3032 RMK A01 T10431054  RH  092%=      5-min Rain = 0
KNH1 141338Z 12005KT M04/M05 A3032 RMK A01 T10431054  RH  092%=      5-min Rain = 0
KNH1 141339Z 13004KT M04/M05 A3032 RMK A01 T10421053  RH  092%=      5-min Rain = 0
KNH1 141340Z 12005KT M04/M05 A3032 RMK A01 T10421053  RH  093%=      5-min Rain = 0
KNH1 141341Z 12005KT M04/M05 A3032 RMK A01 T10421053  RH  093%=      5-min Rain = 0
KNH1 141342Z 13005KT M04/M05 A3032 RMK A01 T10421053  RH  093%=      5-min Rain = 0
KNH1 141343Z 13004KT M04/M05 A3032 RMK A01 T10421053  RH  093%=      5-min Rain = 0
KNH1 141344Z 12004KT M04/M05 A3032 RMK A01 T10421052  RH  093%=      5-min Rain = 0
KNH1 141345Z 13006KT M04/M05 A3033 RMK A01 T10421052  RH  093%=      5-min Rain = 0
KNH1 141346Z 13004KT M04/M05 A3033 RMK A01 T10421052  RH  093%=      5-min Rain = 0
KNH1 141347Z 12004KT M04/M05 A3033 RMK A01 T10421052  RH  093%=      5-min Rain = 0
KNH1 141348Z 13006KT M04/M05 A3033 RMK A01 T10421051  RH  093%=      5-min Rain = 0
KNH1 141349Z 13004KT M04/M05 A3033 RMK A01 T10421052  RH  093%=      5-min Rain = 0
KNH1 141350Z 14004KT M04/M05 A3033 RMK A01 T10421052  RH  093%=      5-min Rain = 0
KNH1 141351Z 14005KT M04/M05 A3032 RMK A01 T10421052  RH  093%=      5-min Rain = 0
KNH1 141352Z 11005KT M04/M05 A3032 RMK A01 T10421052  RH  093%=      5-min Rain = 0
KNH1 141353Z 13005KT M04/M05 A3032 RMK A01 T10421051  RH  093%=      5-min Rain = 0
KNH1 141354Z 13004KT M04/M05 A3032 RMK A01 T10421052  RH  093%=      5-min Rain = 0
KNH1 141355Z 12006KT M04/M05 A3032 RMK A01 T10421051  RH  093%=      5-min Rain = 0
KNH1 141356Z 13006KT M04/M05 A3032 RMK A01 T10421051  RH  093%=      5-min Rain = 0
KNH1 141357Z 13004KT M04/M05 A3032 RMK A01 T10421051  RH  093%=      5-min Rain = 0
KNH1 141358Z 12005KT M04/M05 A3032 RMK A01 T10421051  RH  094%=      5-min Rain = 0
KNH1 141359Z 13005KT M04/M05 A3032 RMK A01 T10421050  RH  094%=      5-min Rain = 0
KNH1 141400Z 13006KT M04/M05 A3032 RMK A01 T10411050  RH  094%=      5-min Rain = 0
KNH1 141401Z 13006KT M04/M05 A3032 RMK A01 T10411050  RH  094%=      5-min Rain = 0
KNH1 141402Z 12005KT M04/M05 A3032 RMK A01 T10411050  RH  094%=      5-min Rain = 0
KNH1 141403Z 13005KT M04/M05 A3032 RMK A01 T10411050  RH  094%=      5-min Rain = 0
KNH1 141404Z 12006KT M04/M05 A3032 RMK A01 T10411050  RH  094%=      5-min Rain = 0
KNH1 141405Z 12005KT M04/M05 A3032 RMK A01 T10411050  RH  094%=      5-min Rain = 0
KNH1 141406Z 12006KT M04/M05 A3032 RMK A01 T10411050  RH  094%=      5-min Rain = 0
KNH1 141407Z 12006KT M04/M05 A3032 RMK A01 T10411050  RH  093%=      5-min Rain = 0
KNH1 141408Z 12006KT M04/M05 A3032 RMK A01 T10421051  RH  093%=      5-min Rain = 0
KNH1 141409Z 12005KT M04/M05 A3032 RMK A01 T10421051  RH  093%=      5-min Rain = 0
KNH1 141410Z 12005KT M04/M05 A3032 RMK A01 T10421051  RH  093%=      5-min Rain = 0
KNH1 141411Z 11006KT M04/M05 A3032 RMK A01 T10411050  RH  094%=      5-min Rain = 0
KNH1 141412Z 12005KT M04/M05 A3032 RMK A01 T10421051  RH  094%=      5-min Rain = 0
KNH1 141413Z 13004KT M04/M05 A3032 RMK A01 T10421051  RH  094%=      5-min Rain = 0
KNH1 141414Z 12004KT M04/M05 A3032 RMK A01 T10421050  RH  094%=      5-min Rain = 0
KNH1 141415Z 13006KT M04/M05 A3032 RMK A01 T10411050  RH  094%=      5-min Rain = 0
KNH1 141416Z 12006KT M04/M05 A3032 RMK A01 T10411050  RH  094%=      5-min Rain = 0
KNH1 141417Z 12004KT M04/M05 A3032 RMK A01 T10421050  RH  094%=      5-min Rain = 0
KNH1 141418Z 13005KT M04/M05 A3032 RMK A01 T10421050  RH  094%=      5-min Rain = 0
KNH1 141419Z 12006KT M04/M05 A3032 RMK A01 T10421050  RH  094%=      5-min Rain = 0
KNH1 141420Z 12006KT M04/M05 A3032 RMK A01 T10421050  RH  094%=      5-min Rain = 0
KNH1 141421Z 13006KT M04/M05 A3032 RMK A01 T10421050  RH  094%=      5-min Rain = 0
KNH1 141422Z 13005KT M04/M05 A3032 RMK A01 T10421049  RH  094%=      5-min Rain = 0
KNH1 141423Z 13005KT M04/M05 A3032 RMK A01 T10411049  RH  094%=      5-min Rain = 0
KNH1 141424Z 13006KT M04/M05 A3032 RMK A01 T10411049  RH  094%=      5-min Rain = 0
KNH1 141425Z 12004KT M04/M05 A3032 RMK A01 T10411049  RH  094%=      5-min Rain = 0
KNH1 141426Z 13005KT M04/M05 A3032 RMK A01 T10411049  RH  095%=      5-min Rain = 0
KNH1 141427Z 14004KT M04/M05 A3032 RMK A01 T10411048  RH  095%=      5-min Rain = 0
KNH1 141428Z 12005KT M04/M05 A3032 RMK A01 T10411048  RH  095%=      5-min Rain = 0
KNH1 141429Z 12005KT M04/M05 A3032 RMK A01 T10411047  RH  095%=      5-min Rain = 0
KNH1 141430Z 11005KT M04/M05 A3032 RMK A01 T10411047  RH  095%=      5-min Rain = 0
KNH1 141431Z 12004KT M04/M05 A3032 RMK A01 T10411048  RH  095%=      5-min Rain = 0
KNH1 141432Z 13004KT M04/M05 A3032 RMK A01 T10411047  RH  095%=      5-min Rain = 0
KNH1 141433Z 13005KT M04/M05 A3032 RMK A01 T10411047  RH  095%=      5-min Rain = 0
KNH1 141434Z 13004KT M04/M05 A3032 RMK A01 T10411047  RH  095%=      5-min Rain = 0
KNH1 141435Z 12005KT M04/M05 A3032 RMK A01 T10411047  RH  095%=      5-min Rain = 0
KNH1 141436Z 12004KT M04/M05 A3032 RMK A01 T10401046  RH  095%=      5-min Rain = 0
KNH1 141437Z 12005KT M04/M05 A3032 RMK A01 T10401047  RH  095%=      5-min Rain = 0
KNH1 141438Z 12005KT M04/M05 A3032 RMK A01 T10401046  RH  095%=      5-min Rain = 0
KNH1 141439Z 13005KT M04/M05 A3032 RMK A01 T10401047  RH  095%=      5-min Rain = 0
KNH1 141440Z 12005KT M04/M05 A3032 RMK A01 T10401046  RH  095%=      5-min Rain = 0
KNH1 141441Z 14003KT M04/M05 A3032 RMK A01 T10411047  RH  096%=      5-min Rain = 0
KNH1 141442Z 13004KT M04/M05 A3033 RMK A01 T10401046  RH  096%=      5-min Rain = 0
KNH1 141443Z 14003KT M04/M05 A3033 RMK A01 T10401046  RH  096%=      5-min Rain = 0
KNH1 141444Z 13004KT M04/M05 A3033 RMK A01 T10391045  RH  096%=      5-min Rain = 0
KNH1 141445Z 13004KT M04/M05 A3033 RMK A01 T10401045  RH  096%=      5-min Rain = 0
KNH1 141446Z 12004KT M04/M05 A3033 RMK A01 T10401045  RH  096%=      5-min Rain = 0
KNH1 141447Z 13004KT M04/M05 A3033 RMK A01 T10391045  RH  096%=      5-min Rain = 0
KNH1 141448Z 11004KT M04/M04 A3032 RMK A01 T10391044  RH  096%=      5-min Rain = 0
KNH1 141449Z 12005KT M04/M04 A3032 RMK A01 T10391044  RH  096%=      5-min Rain = 0
KNH1 141450Z 11004KT M04/M04 A3032 RMK A01 T10391044  RH  096%=      5-min Rain = 0
KNH1 141451Z 12005KT M04/M04 A3032 RMK A01 T10391044  RH  096%=      5-min Rain = 0
KNH1 141452Z 12004KT M04/M04 A3032 RMK A01 T10391044  RH  096%=      5-min Rain = 0
KNH1 141453Z 12004KT M04/M04 A3032 RMK A01 T10391044  RH  097%=      5-min Rain = 0
KNH1 141454Z 11003KT M04/M04 A3032 RMK A01 T10391044  RH  097%=      5-min Rain = 0
KNH1 141455Z 12004KT M04/M04 A3032 RMK A01 T10391043  RH  097%=      5-min Rain = 0
KNH1 141456Z 13005KT M04/M04 A3032 RMK A01 T10381043  RH  097%=      5-min Rain = 0
KNH1 141457Z 13005KT M04/M04 A3032 RMK A01 T10381042  RH  097%=      5-min Rain = 0
KNH1 141458Z 13006KT M04/M04 A3032 RMK A01 T10381042  RH  097%=      5-min Rain = 0
KNH1 141459Z 13004KT M04/M04 A3032 RMK A01 T10381042  RH  097%=      5-min Rain = 0
KNH1 141500Z 13004KT M04/M04 A3032 RMK A01 T10381042  RH  097%=      5-min Rain = 0
KNH1 141501Z 11004KT M04/M04 A3032 RMK A01 T10381042  RH  097%=      5-min Rain = 0
KNH1 141502Z 11005KT M04/M04 A3032 RMK A01 T10371042  RH  097%=      5-min Rain = 0
KNH1 141503Z 11005KT M04/M04 A3032 RMK A01 T10381042  RH  097%=      5-min Rain = 0
KNH1 141504Z 11006KT M04/M04 A3032 RMK A01 T10371042  RH  097%=      5-min Rain = 0
KNH1 141505Z 11004KT M04/M04 A3032 RMK A01 T10381042  RH  097%=      5-min Rain = 0
KNH1 141506Z 12005KT M04/M04 A3032 RMK A01 T10381042  RH  097%=      5-min Rain = 0
KNH1 141507Z 11004KT M04/M04 A3032 RMK A01 T10381042  RH  097%=      5-min Rain = 0
KNH1 141508Z 12004KT M04/M04 A3032 RMK A01 T10381042  RH  097%=      5-min Rain = 0
KNH1 141509Z 12004KT M04/M04 A3032 RMK A01 T10381042  RH  097%=      5-min Rain = 0
KNH1 141510Z 12006KT M04/M04 A3032 RMK A01 T10371042  RH  097%=      5-min Rain = 0
KNH1 141511Z 12006KT M04/M04 A3032 RMK A01 T10371041  RH  097%=      5-min Rain = 0
KNH1 141512Z 12006KT M04/M04 A3032 RMK A01 T10371041  RH  097%=      5-min Rain = 0
KNH1 141513Z 12003KT M04/M04 A3032 RMK A01 T10371041  RH  097%=      5-min Rain = 0
KNH1 141514Z 12005KT M04/M04 A3032 RMK A01 T10371041  RH  097%=      5-min Rain = 0
KNH1 141515Z 13006KT M04/M04 A3032 RMK A01 T10371041  RH  097%=      5-min Rain = 0
KNH1 141516Z 13005KT M04/M04 A3032 RMK A01 T10361040  RH  097%=      5-min Rain = 0
KNH1 141517Z 12004KT M04/M04 A3032 RMK A01 T10361040  RH  097%=      5-min Rain = 0
KNH1 141518Z 12005KT M04/M04 A3032 RMK A01 T10351039  RH  097%=      5-min Rain = 0
KNH1 141519Z 12005KT M04/M04 A3032 RMK A01 T10351039  RH  097%=      5-min Rain = 0
KNH1 141520Z 13005KT M04/M04 A3033 RMK A01 T10351039  RH  097%=      5-min Rain = 0
KNH1 141521Z 12004KT M04/M04 A3033 RMK A01 T10351039  RH  097%=      5-min Rain = 0
KNH1 141522Z 13006KT M04/M04 A3033 RMK A01 T10351039  RH  097%=      5-min Rain = 0
KNH1 141523Z 14005KT M04/M04 A3033 RMK A01 T10351039  RH  097%=      5-min Rain = 0
KNH1 141524Z 14006KT M04/M04 A3033 RMK A01 T10351039  RH  097%=      5-min Rain = 0
KNH1 141525Z 12005KT M03/M04 A3033 RMK A01 T10341038  RH  097%=      5-min Rain = 0
KNH1 141526Z 13005KT M03/M04 A3033 RMK A01 T10341038  RH  097%=      5-min Rain = 0
KNH1 141527Z 12006KT M03/M04 A3033 RMK A01 T10341038  RH  097%=      5-min Rain = 0
KNH1 141528Z 13004KT M03/M04 A3032 RMK A01 T10341037  RH  097%=      5-min Rain = 0
KNH1 141529Z 13005KT M03/M04 A3032 RMK A01 T10331037  RH  097%=      5-min Rain = 0
KNH1 141530Z 14005KT M03/M04 A3032 RMK A01 T10331036  RH  097%=      5-min Rain = 0
KNH1 141531Z 13005KT M03/M04 A3032 RMK A01 T10331037  RH  097%=      5-min Rain = 0
KNH1 141532Z 12005KT M03/M04 A3033 RMK A01 T10331037  RH  097%=      5-min Rain = 0
KNH1 141533Z 12007KT M03/M04 A3033 RMK A01 T10331037  RH  097%=      5-min Rain = 0
KNH1 141534Z 13006KT M03/M04 A3033 RMK A01 T10321036  RH  097%=      5-min Rain = 0
KNH1 141535Z 13006KT M03/M04 A3033 RMK A01 T10321036  RH  097%=      5-min Rain = 0
KNH1 141536Z 12004KT M03/M04 A3033 RMK A01 T10321036  RH  097%=      5-min Rain = 0
KNH1 141537Z 12004KT M03/M04 A3033 RMK A01 T10321035  RH  097%=      5-min Rain = 0
KNH1 141538Z 12004KT M03/M04 A3033 RMK A01 T10311035  RH  097%=      5-min Rain = 0
KNH1 141539Z 12005KT M03/M03 A3033 RMK A01 T10301034  RH  097%=      5-min Rain = 0
KNH1 141540Z 13005KT M03/M03 A3033 RMK A01 T10301034  RH  097%=      5-min Rain = 0
KNH1 141541Z 14005KT M03/M03 A3033 RMK A01 T10311034  RH  097%=      5-min Rain = 0
KNH1 141542Z 13004KT M03/M03 A3033 RMK A01 T10311034  RH  097%=      5-min Rain = 0
KNH1 141543Z 12006KT M03/M03 A3033 RMK A01 T10311034  RH  097%=      5-min Rain = 0
KNH1 141544Z 12005KT M03/M03 A3033 RMK A01 T10301034  RH  097%=      5-min Rain = 0
KNH1 141545Z 13007KT M03/M03 A3033 RMK A01 T10301034  RH  097%=      5-min Rain = 0
KNH1 141546Z 13007KT M03/M04 A3033 RMK A01 T10311035  RH  097%=      5-min Rain = 0
KNH1 141547Z 14008KT M03/M04 A3033 RMK A01 T10311035  RH  097%=      5-min Rain = 0
KNH1 141548Z 13006KT M03/M04 A3033 RMK A01 T10311035  RH  097%=      5-min Rain = 0
KNH1 141549Z 13006KT M03/M04 A3033 RMK A01 T10311035  RH  097%=      5-min Rain = 0
KNH1 141550Z 14005KT M03/M04 A3033 RMK A01 T10311035  RH  097%=      5-min Rain = 0
KNH1 141551Z 13004KT M03/M04 A3033 RMK A01 T10311035  RH  097%=      5-min Rain = 0
KNH1 141552Z 12005KT M03/M03 A3033 RMK A01 T10301034  RH  097%=      5-min Rain = 0
KNH1 141553Z 12004KT M03/M03 A3033 RMK A01 T10301033  RH  097%=      5-min Rain = 0
KNH1 141554Z 12005KT M03/M03 A3033 RMK A01 T10291032  RH  097%=      5-min Rain = 0
KNH1 141555Z 12007KT M03/M03 A3033 RMK A01 T10291033  RH  097%=      5-min Rain = 0
KNH1 141556Z 13006KT M03/M03 A3033 RMK A01 T10291033  RH  097%=      5-min Rain = 0
KNH1 141557Z 14006KT M03/M03 A3033 RMK A01 T10301033  RH  097%=      5-min Rain = 0
KNH1 141558Z 14007KT M03/M03 A3033 RMK A01 T10301034  RH  097%=      5-min Rain = 0
KNH1 141559Z 14006KT M03/M03 A3033 RMK A01 T10301034  RH  097%=      5-min Rain = 0
KNH1 141600Z 13004KT M03/M03 A3033 RMK A01 T10301034  RH  097%=      5-min Rain = 0
KNH1 141601Z 13005KT M03/M03 A3033 RMK A01 T10291033  RH  098%=      5-min Rain = 0
KNH1 141602Z 13005KT M03/M03 A3033 RMK A01 T10281031  RH  098%=      5-min Rain = 0
KNH1 141603Z 13006KT M03/M03 A3033 RMK A01 T10291031  RH  098%=      5-min Rain = 0
KNH1 141604Z 14006KT M03/M03 A3033 RMK A01 T10291032  RH  098%=      5-min Rain = 0
KNH1 141605Z 13007KT M03/M03 A3033 RMK A01 T10291032  RH  098%=      5-min Rain = 0
KNH1 141606Z 13006KT M03/M03 A3032 RMK A01 T10281031  RH  098%=      5-min Rain = 0
KNH1 141607Z 12006KT M03/M03 A3032 RMK A01 T10291032  RH  098%=      5-min Rain = 0
KNH1 141608Z 12006KT M03/M03 A3032 RMK A01 T10291032  RH  098%=      5-min Rain = 0
KNH1 141609Z 12006KT M03/M03 A3032 RMK A01 T10291032  RH  098%=      5-min Rain = 0
KNH1 141610Z 12005KT M03/M03 A3032 RMK A01 T10281031  RH  098%=      5-min Rain = 0
KNH1 141611Z 13006KT M03/M03 A3032 RMK A01 T10281032  RH  098%=      5-min Rain = 0
KNH1 141612Z 14007KT M03/M03 A3032 RMK A01 T10281031  RH  098%=      5-min Rain = 0
KNH1 141613Z 14004KT M03/M03 A3032 RMK A01 T10271031  RH  097%=      5-min Rain = 0
KNH1 141614Z 14005KT M03/M03 A3032 RMK A01 T10271031  RH  097%=      5-min Rain = 0
KNH1 141615Z 13005KT M03/M03 A3032 RMK A01 T10281031  RH  097%=      5-min Rain = 0
KNH1 141616Z 12006KT M03/M03 A3032 RMK A01 T10281031  RH  097%=      5-min Rain = 0
KNH1 141617Z 12005KT M03/M03 A3032 RMK A01 T10281031  RH  097%=      5-min Rain = 0
KNH1 141618Z 12006KT M03/M03 A3032 RMK A01 T10281031  RH  097%=      5-min Rain = 0
KNH1 141619Z 11007KT M03/M03 A3032 RMK A01 T10281031  RH  097%=      5-min Rain = 0
KNH1 141620Z 12005KT M03/M03 A3032 RMK A01 T10281031  RH  097%=      5-min Rain = 0
KNH1 141621Z 12007KT M03/M03 A3033 RMK A01 T10281031  RH  097%=      5-min Rain = 0
KNH1 141622Z 12004KT M03/M03 A3032 RMK A01 T10281031  RH  098%=      5-min Rain = 0
KNH1 141623Z 13004KT M03/M03 A3032 RMK A01 T10271030  RH  098%=      5-min Rain = 0
KNH1 141624Z 13006KT M03/M03 A3032 RMK A01 T10261030  RH  098%=      5-min Rain = 0
KNH1 141625Z 13005KT M03/M03 A3032 RMK A01 T10261030  RH  098%=      5-min Rain = 0
KNH1 141626Z 14006KT M03/M03 A3032 RMK A01 T10261030  RH  097%=      5-min Rain = 0
KNH1 141627Z 13004KT M03/M03 A3032 RMK A01 T10261030  RH  097%=      5-min Rain = 0
KNH1 141628Z 14006KT M03/M03 A3032 RMK A01 T10261030  RH  097%=      5-min Rain = 0
KNH1 141629Z 14005KT M03/M03 A3032 RMK A01 T10261030  RH  098%=      5-min Rain = 0
KNH1 141630Z 14006KT M03/M03 A3032 RMK A01 T10261029  RH  098%=      5-min Rain = 0
KNH1 141631Z 14007KT M03/M03 A3032 RMK A01 T10261028  RH  098%=      5-min Rain = 0
KNH1 141632Z 14007KT M03/M03 A3032 RMK A01 T10251028  RH  098%=      5-min Rain = 0
KNH1 141633Z 14005KT M03/M03 A3032 RMK A01 T10251028  RH  098%=      5-min Rain = 0
KNH1 141634Z 15006KT M03/M03 A3032 RMK A01 T10251028  RH  098%=      5-min Rain = 0
KNH1 141635Z 14004KT M02/M03 A3032 RMK A01 T10241027  RH  098%=      5-min Rain = 0
KNH1 141636Z 15005KT M02/M03 A3032 RMK A01 T10241027  RH  098%=      5-min Rain = 0
KNH1 141637Z 15008KT M02/M03 A3032 RMK A01 T10231026  RH  098%=      5-min Rain = 0
KNH1 141638Z 16006KT M02/M03 A3032 RMK A01 T10231026  RH  098%=      5-min Rain = 0
KNH1 141639Z 16007KT M02/M03 A3032 RMK A01 T10221026  RH  098%=      5-min Rain = 0
KNH1 141640Z 16005KT M02/M03 A3032 RMK A01 T10221025  RH  098%=      5-min Rain = 0
KNH1 141641Z 17007KT M02/M03 A3032 RMK A01 T10221025  RH  098%=      5-min Rain = 0
KNH1 141642Z 16007KT M02/M02 A3032 RMK A01 T10211024  RH  098%=      5-min Rain = 0
KNH1 141643Z 15007KT M02/M02 A3032 RMK A01 T10211024  RH  098%=      5-min Rain = 0
KNH1 141644Z 15007KT M02/M02 A3032 RMK A01 T10211024  RH  098%=      5-min Rain = 0
KNH1 141645Z 15009KT M02/M03 A3032 RMK A01 T10221025  RH  098%=      5-min Rain = 0
KNH1 141646Z 15008KT M02/M03 A3032 RMK A01 T10221026  RH  098%=      5-min Rain = 0
KNH1 141647Z 15006KT M02/M03 A3032 RMK A01 T10231026  RH  098%=      5-min Rain = 0
KNH1 141648Z 15007KT M02/M03 A3032 RMK A01 T10221025  RH  098%=      5-min Rain = 0
KNH1 141649Z 14007KT M02/M03 A3032 RMK A01 T10221025  RH  098%=      5-min Rain = 0
KNH1 141650Z 15006KT M02/M02 A3032 RMK A01 T10211024  RH  098%=      5-min Rain = 0
KNH1 141651Z 16009KT M02/M02 A3032 RMK A01 T10211024  RH  098%=      5-min Rain = 0
KNH1 141652Z 15006KT M02/M03 A3032 RMK A01 T10221025  RH  098%=      5-min Rain = 0
KNH1 141653Z 16007KT M02/M03 A3032 RMK A01 T10221025  RH  098%=      5-min Rain = 0
KNH1 141654Z 14006KT M02/M03 A3032 RMK A01 T10221025  RH  098%=      5-min Rain = 0
KNH1 141655Z 16006KT M02/M02 A3032 RMK A01 T10201023  RH  098%=      5-min Rain = 0
KNH1 141656Z 15007KT M02/M02 A3032 RMK A01 T10201022  RH  098%=      5-min Rain = 0
KNH1 141657Z 15007KT M02/M02 A3032 RMK A01 T10201023  RH  098%=      5-min Rain = 0
KNH1 141658Z 15007KT M02/M02 A3032 RMK A01 T10201023  RH  098%=      5-min Rain = 0
KNH1 141659Z 14007KT M02/M02 A3032 RMK A01 T10201023  RH  098%=      5-min Rain = 0
KNH1 141700Z 15007KT M02/M02 A3031 RMK A01 T10201023  RH  098%=      5-min Rain = 0
KNH1 141701Z 15006KT M02/M02 A3031 RMK A01 T10201023  RH  098%=      5-min Rain = 0
KNH1 141702Z 15007G12KT M02/M02 A3031 RMK A01 T10201023  RH  098%=      5-min Rain = 0
KNH1 141703Z 16007KT M02/M02 A3032 RMK A01 T10201023  RH  098%=      5-min Rain = 0
KNH1 141704Z 15008KT M02/M02 A3031 RMK A01 T10201023  RH  098%=      5-min Rain = 0
KNH1 141705Z 15006KT M02/M02 A3032 RMK A01 T10201023  RH  098%=      5-min Rain = 0
KNH1 141706Z 16005KT M02/M02 A3032 RMK A01 T10201022  RH  098%=      5-min Rain = 0
KNH1 141707Z 16008KT M02/M02 A3031 RMK A01 T10181021  RH  098%=      5-min Rain = 0
KNH1 141708Z 16006KT M02/M02 A3031 RMK A01 T10181021  RH  098%=      5-min Rain = 0
KNH1 141709Z 16009KT M02/M02 A3031 RMK A01 T10181021  RH  098%=      5-min Rain = 0
KNH1 141710Z 16010KT M02/M02 A3031 RMK A01 T10181021  RH  098%=      5-min Rain = 0
KNH1 141711Z 16008KT M02/M02 A3031 RMK A01 T10191022  RH  098%=      5-min Rain = 0
KNH1 141712Z 16009KT M02/M02 A3031 RMK A01 T10201023  RH  098%=      5-min Rain = 0
KNH1 141713Z 16007KT M02/M02 A3031 RMK A01 T10201023  RH  098%=      5-min Rain = 0
KNH1 141714Z 17008KT M02/M02 A3031 RMK A01 T10191022  RH  098%=      5-min Rain = 0
KNH1 141715Z 16007KT M02/M02 A3031 RMK A01 T10191022  RH  098%=      5-min Rain = 0
KNH1 141716Z 15006KT M02/M02 A3031 RMK A01 T10191021  RH  098%=      5-min Rain = 0
KNH1 141717Z 15007KT M02/M02 A3031 RMK A01 T10171020  RH  098%=      5-min Rain = 0
KNH1 141718Z 16008KT M02/M02 A3031 RMK A01 T10171019  RH  098%=      5-min Rain = 0
KNH1 141719Z 17006KT M02/M02 A3031 RMK A01 T10171020  RH  098%=      5-min Rain = 0
KNH1 141720Z 16007G12KT M02/M02 A3031 RMK A01 T10171020  RH  098%=      5-min Rain = 0
KNH1 141721Z 17009KT M02/M02 A3031 RMK A01 T10171020  RH  098%=      5-min Rain = 0
KNH1 141722Z 16008KT M02/M02 A3031 RMK A01 T10171020  RH  098%=      5-min Rain = 0
KNH1 141723Z 15006KT M02/M02 A3031 RMK A01 T10171020  RH  098%=      5-min Rain = 0
KNH1 141724Z 16007KT M02/M02 A3031 RMK A01 T10161018  RH  098%=      5-min Rain = 0
KNH1 141725Z 16008KT M02/M02 A3031 RMK A01 T10161019  RH  098%=      5-min Rain = 0
KNH1 141726Z 16007KT M02/M02 A3031 RMK A01 T10171019  RH  098%=      5-min Rain = 0
KNH1 141727Z 17007KT M02/M02 A3031 RMK A01 T10171019  RH  098%=      5-min Rain = 0
KNH1 141728Z 16006KT M02/M02 A3031 RMK A01 T10171020  RH  098%=      5-min Rain = 0
KNH1 141729Z 17007KT M02/M02 A3031 RMK A01 T10161019  RH  098%=      5-min Rain = 0
KNH1 141730Z 17005KT M02/M02 A3031 RMK A01 T10161019  RH  098%=      5-min Rain = 0
KNH1 141731Z 15008KT M02/M02 A3031 RMK A01 T10161018  RH  098%=      5-min Rain = 0
KNH1 141732Z 15008KT M02/M02 A3031 RMK A01 T10151017  RH  098%=      5-min Rain = 0
KNH1 141733Z 16010KT M02/M02 A3031 RMK A01 T10151018  RH  098%=      5-min Rain = 0
KNH1 141734Z 17007KT M02/M02 A3031 RMK A01 T10171020  RH  098%=      5-min Rain = 0
KNH1 141735Z 17006KT M02/M02 A3031 RMK A01 T10171020  RH  098%=      5-min Rain = 0
KNH1 141736Z 16006G11KT M02/M02 A3031 RMK A01 T10161019  RH  098%=      5-min Rain = 0
KNH1 141737Z 16009KT M02/M02 A3031 RMK A01 T10151018  RH  098%=      5-min Rain = 0
KNH1 141738Z 15009KT M02/M02 A3031 RMK A01 T10151018  RH  098%=      5-min Rain = 0
KNH1 141739Z 17008KT M02/M02 A3031 RMK A01 T10161019  RH  098%=      5-min Rain = 0
KNH1 141740Z 18008KT M02/M02 A3031 RMK A01 T10161019  RH  098%=      5-min Rain = 0
KNH1 141741Z 17008KT M02/M02 A3031 RMK A01 T10161019  RH  098%=      5-min Rain = 0
KNH1 141742Z 17005KT M02/M02 A3031 RMK A01 T10161019  RH  098%=      5-min Rain = 0
KNH1 141743Z 15005G10KT M02/M02 A3031 RMK A01 T10161018  RH  098%=      5-min Rain = 0
KNH1 141744Z 15008KT M02/M02 A3031 RMK A01 T10151017  RH  098%=      5-min Rain = 0
KNH1 141745Z 15006KT M02/M02 A3031 RMK A01 T10151017  RH  098%=      5-min Rain = 0
KNH1 141746Z 14006KT M02/M02 A3031 RMK A01 T10151017  RH  098%=      5-min Rain = 0
KNH1 141747Z 17006KT M02/M02 A3031 RMK A01 T10151018  RH  098%=      5-min Rain = 0
KNH1 141748Z 17007KT M01/M02 A3031 RMK A01 T10141017  RH  098%=      5-min Rain = 0
KNH1 141749Z 16006KT M01/M02 A3031 RMK A01 T10141017  RH  098%=      5-min Rain = 0
KNH1 141750Z 15008KT M01/M02 A3031 RMK A01 T10141017  RH  098%=      5-min Rain = 0
KNH1 141751Z 17005KT M01/M02 A3031 RMK A01 T10141017  RH  098%=      5-min Rain = 0
KNH1 141752Z 17006KT M01/M02 A3031 RMK A01 T10141016  RH  098%=      5-min Rain = 0
KNH1 141753Z 17007KT M01/M02 A3031 RMK A01 T10131015  RH  098%=      5-min Rain = 0
KNH1 141754Z 17008KT M01/M02 A3031 RMK A01 T10131015  RH  098%=      5-min Rain = 0
KNH1 141755Z 17011KT M01/M02 A303 RMK A01 T10131015  RH  098%=      5-min Rain = 0
KNH1 141756Z 18010KT M01/M02 A303 RMK A01 T10131015  RH  098%=      5-min Rain = 0
KNH1 141757Z 18010KT M01/M02 A303 RMK A01 T10121015  RH  098%=      5-min Rain = 0
KNH1 141758Z 18011KT M01/M02 A303 RMK A01 T10121015  RH  098%=      5-min Rain = 0
KNH1 141759Z 18010KT M01/M01 A303 RMK A01 T10121014  RH  098%=      5-min Rain = 0
KNH1 141800Z 17009KT M01/M01 A303 RMK A01 T10121014  RH  098%=      5-min Rain = 0
KNH1 141801Z 18009KT M01/M01 A303 RMK A01 T10111014  RH  098%=      5-min Rain = 0
KNH1 141802Z 18010KT M01/M01 A303 RMK A01 T10111014  RH  098%=      5-min Rain = 0
KNH1 141803Z 19010KT M01/M01 A303 RMK A01 T10111013  RH  098%=      5-min Rain = 0
KNH1 141804Z 18008KT M01/M01 A303 RMK A01 T10111013  RH  098%=      5-min Rain = 0
KNH1 141805Z 17008KT M01/M01 A3031 RMK A01 T10111013  RH  098%=      5-min Rain = 0
KNH1 141806Z 16008KT M01/M01 A303 RMK A01 T10111014  RH  098%=      5-min Rain = 0
KNH1 141807Z 16008KT M01/M01 A303 RMK A01 T10111014  RH  098%=      5-min Rain = 0
KNH1 141808Z 17009KT M01/M01 A303 RMK A01 T10111014  RH  098%=      5-min Rain = 0
KNH1 141809Z 18009KT M01/M01 A303 RMK A01 T10111014  RH  098%=      5-min Rain = 0
KNH1 141810Z 18009KT M01/M01 A303 RMK A01 T10111013  RH  098%=      5-min Rain = 0
KNH1 141811Z 17008KT M01/M01 A303 RMK A01 T10111013  RH  098%=      5-min Rain = 0
KNH1 141812Z 17008KT M01/M01 A303 RMK A01 T10111013  RH  098%=      5-min Rain = 0
KNH1 141813Z 18009KT M01/M01 A303 RMK A01 T10111013  RH  098%=      5-min Rain = 0
KNH1 141814Z 18008KT M01/M01 A303 RMK A01 T10101013  RH  098%=      5-min Rain = 0
KNH1 141815Z 18008KT M01/M01 A303 RMK A01 T10091012  RH  098%=      5-min Rain = 0
KNH1 141816Z 19009KT M01/M01 A303 RMK A01 T10081011  RH  098%=      5-min Rain = 0
KNH1 141817Z 19010KT M01/M01 A303 RMK A01 T10071009  RH  099%=      5-min Rain = 0
KNH1 141818Z 19011KT M01/M01 A303 RMK A01 T10071009  RH  098%=      5-min Rain = 0
KNH1 141819Z 19012KT M01/M01 A303 RMK A01 T10071009  RH  098%=      5-min Rain = 0
KNH1 141820Z 19009KT M01/M01 A303 RMK A01 T10071009  RH  098%=      5-min Rain = 0
KNH1 141821Z 18010KT M01/M01 A303 RMK A01 T10071010  RH  098%=      5-min Rain = 0
KNH1 141822Z 18011KT M01/M01 A303 RMK A01 T10071009  RH  098%=      5-min Rain = 0
KNH1 141823Z 19011KT M01/M01 A303 RMK A01 T10061009  RH  098%=      5-min Rain = 0
KNH1 141824Z 19012KT M01/M01 A303 RMK A01 T10061008  RH  098%=      5-min Rain = 0
KNH1 141825Z 19011KT M01/M01 A3029 RMK A01 T10061008  RH  098%=      5-min Rain = 0
KNH1 141826Z 19010KT M01/M01 A3029 RMK A01 T10061009  RH  098%=      5-min Rain = 0
KNH1 141827Z 19012KT M01/M01 A3029 RMK A01 T10061009  RH  098%=      5-min Rain = 0
KNH1 141828Z 18010KT M01/M01 A3029 RMK A01 T10061009  RH  098%=      5-min Rain = 0
KNH1 141829Z 19010KT M01/M01 A3029 RMK A01 T10071010  RH  098%=      5-min Rain = 0
KNH1 141830Z 20010KT M01/M01 A3029 RMK A01 T10071010  RH  098%=      5-min Rain = 0
KNH1 141831Z 20012KT M01/M01 A3029 RMK A01 T10061009  RH  098%=      5-min Rain = 0
KNH1 141832Z 19010KT M01/M01 A3029 RMK A01 T10061009  RH  098%=      5-min Rain = 0
KNH1 141833Z 19010KT M01/M01 A3029 RMK A01 T10051009  RH  098%=      5-min Rain = 0
KNH1 141834Z 18010KT M01/M01 A3029 RMK A01 T10051008  RH  098%=      5-min Rain = 0
KNH1 141835Z 18010KT M01/M01 A3029 RMK A01 T10051008  RH  098%=      5-min Rain = 0
KNH1 141836Z 18012KT M01/M01 A3029 RMK A01 T10051008  RH  098%=      5-min Rain = 0
KNH1 141837Z 18012KT M01/M01 A3029 RMK A01 T10051008  RH  097%=      5-min Rain = 0
KNH1 141838Z 18011KT M01/M01 A3029 RMK A01 T10051009  RH  097%=      5-min Rain = 0
KNH1 141839Z 19010KT M01/M01 A3029 RMK A01 T10051009  RH  097%=      5-min Rain = 0
KNH1 141840Z 19007KT M01/M01 A3029 RMK A01 T10051009  RH  097%=      5-min Rain = 0
KNH1 141841Z 19009KT M00/M01 A3029 RMK A01 T10041008  RH  097%=      5-min Rain = 0
KNH1 141842Z 19009KT M00/M01 A3029 RMK A01 T10041008  RH  097%=      5-min Rain = 0
KNH1 141843Z 18011KT M00/M01 A3029 RMK A01 T10041008  RH  097%=      5-min Rain = 0
KNH1 141844Z 19011KT M00/M01 A3029 RMK A01 T10041008  RH  097%=      5-min Rain = 0
KNH1 141845Z 19009KT M00/M01 A3029 RMK A01 T10041008  RH  097%=      5-min Rain = 0
KNH1 141846Z 19010KT M00/M01 A3029 RMK A01 T10031008  RH  096%=      5-min Rain = 0
KNH1 141847Z 18010KT M00/M01 A3028 RMK A01 T10031009  RH  096%=      5-min Rain = 0
KNH1 141848Z 19010KT M00/M01 A3028 RMK A01 T10031009  RH  096%=      5-min Rain = 0
KNH1 141849Z 20011KT M00/M01 A3028 RMK A01 T10031008  RH  096%=      5-min Rain = 0
KNH1 141850Z 20010KT M00/M01 A3028 RMK A01 T10041010  RH  096%=      5-min Rain = 0
KNH1 141851Z 20011KT M00/M01 A3028 RMK A01 T10041010  RH  096%=      5-min Rain = 0
KNH1 141852Z 19009KT M00/M01 A3028 RMK A01 T10041010  RH  096%=      5-min Rain = 0
KNH1 141853Z 18009KT M00/M01 A3028 RMK A01 T10041010  RH  096%=      5-min Rain = 0
KNH1 141854Z 18009KT M00/M01 A3028 RMK A01 T10031009  RH  096%=      5-min Rain = 0
KNH1 141855Z 19009KT M00/M01 A3028 RMK A01 T10031009  RH  096%=      5-min Rain = 0
KNH1 141856Z 19010KT M00/M01 A3028 RMK A01 T10031008  RH  096%=      5-min Rain = 0
KNH1 141857Z 19010KT M00/M01 A3028 RMK A01 T10021008  RH  096%=      5-min Rain = 0
KNH1 141858Z 18011KT M00/M01 A3028 RMK A01 T10011007  RH  096%=      5-min Rain = 0
KNH1 141859Z 18010KT M00/M01 A3028 RMK A01 T10021009  RH  095%=      5-min Rain = 0
KNH1 141900Z 18011KT M00/M01 A3028 RMK A01 T10021009  RH  095%=      5-min Rain = 0
KNH1 141901Z 18010KT M00/M01 A3028 RMK A01 T10031010  RH  095%=      5-min Rain = 0
KNH1 141902Z 19011KT M00/M01 A3027 RMK A01 T10021009  RH  095%=      5-min Rain = 0
KNH1 141903Z 18010KT M00/M01 A3027 RMK A01 T10021009  RH  095%=      5-min Rain = 0
KNH1 141904Z 19010KT M00/M01 A3027 RMK A01 T10011008  RH  095%=      5-min Rain = 0
KNH1 141905Z 19010KT M00/M01 A3027 RMK A01 T10011009  RH  094%=      5-min Rain = 0
KNH1 141906Z 19009KT M00/M01 A3027 RMK A01 T10021010  RH  094%=      5-min Rain = 0
KNH1 141907Z 19010KT M00/M01 A3027 RMK A01 T10011010  RH  094%=      5-min Rain = 0
KNH1 141908Z 18010KT M00/M01 A3027 RMK A01 T10011009  RH  094%=      5-min Rain = 0
KNH1 141909Z 19011KT M00/M01 A3027 RMK A01 T10011010  RH  094%=      5-min Rain = 0
KNH1 141910Z 19009KT M00/M01 A3027 RMK A01 T10011010  RH  094%=      5-min Rain = 0
KNH1 141911Z 19011KT 00/01 A3027 RMK A01 T00-000-9  RH  094%=      5-min Rain = 0
KNH1 141912Z 18011KT M00/M01 A3027 RMK A01 T10011010  RH  093%=      5-min Rain = 0
KNH1 141913Z 18012KT M00/M01 A3027 RMK A01 T10011010  RH  093%=      5-min Rain = 0
KNH1 141914Z 18009KT M00/M01 A3027 RMK A01 T10011011  RH  093%=      5-min Rain = 0
KNH1 141915Z 18009KT M00/M01 A3027 RMK A01 T10011010  RH  094%=      5-min Rain = 0
KNH1 141916Z 18010KT M00/M01 A3027 RMK A01 T10011010  RH  094%=      5-min Rain = 0
KNH1 141917Z 18009KT M00/M01 A3027 RMK A01 T10011010  RH  094%=      5-min Rain = 0
KNH1 141918Z 19013KT 00/01 A3027 RMK A01 T00-00-10  RH  093%=      5-min Rain = 0
KNH1 141919Z 18010KT 00/01 A3027 RMK A01 T00-00-10  RH  093%=      5-min Rain = 0
KNH1 141920Z 19009KT M00/M01 A3027 RMK A01 T10011010  RH  093%=      5-min Rain = 0
KNH1 141921Z 19008KT 00/01 A3027 RMK A01 T00-00-10  RH  094%=      5-min Rain = 0
KNH1 141922Z 19010KT 00/M01 A3027 RMK A01 T00011009  RH  094%=      5-min Rain = 0
KNH1 141923Z 19009KT 00/M01 A3027 RMK A01 T00011009  RH  093%=      5-min Rain = 0
KNH1 141924Z 19011KT 00/01 A3027 RMK A01 T000000-9  RH  093%=      5-min Rain = 0
KNH1 141925Z 19009KT 00/01 A3027 RMK A01 T000000-9  RH  094%=      5-min Rain = 0
KNH1 141926Z 18008KT 00/M01 A3027 RMK A01 T00011008  RH  094%=      5-min Rain = 0
KNH1 141927Z 18008KT 00/01 A3027 RMK A01 T000000-9  RH  093%=      5-min Rain = 0
KNH1 141928Z 18010KT 00/M01 A3027 RMK A01 T00011009  RH  093%=      5-min Rain = 0
KNH1 141929Z 18009KT 00/M01 A3027 RMK A01 T00011009  RH  093%=      5-min Rain = 0
KNH1 141930Z 18008KT 00/M01 A3027 RMK A01 T00011009  RH  093%=      5-min Rain = 0
KNH1 141931Z 18011KT 00/M01 A3027 RMK A01 T00011009  RH  093%=      5-min Rain = 0
KNH1 141932Z 18010KT 00/01 A3027 RMK A01 T000000-9  RH  093%=      5-min Rain = 0
KNH1 141933Z 17009KT 00/M01 A3026 RMK A01 T00011009  RH  093%=      5-min Rain = 0
KNH1 141934Z 18011KT 00/M01 A3026 RMK A01 T00011009  RH  093%=      5-min Rain = 0
KNH1 141935Z 18009KT 00/M01 A3026 RMK A01 T00011008  RH  093%=      5-min Rain = 0
KNH1 141936Z 17008KT 00/M01 A3026 RMK A01 T00011008  RH  094%=      5-min Rain = 0
KNH1 141937Z 18007KT 00/M01 A3026 RMK A01 T00011008  RH  093%=      5-min Rain = 0
KNH1 141938Z 20008KT 00/M01 A3026 RMK A01 T00011009  RH  093%=      5-min Rain = 0
KNH1 141939Z 19011KT 00/M01 A3026 RMK A01 T00011008  RH  094%=      5-min Rain = 0
KNH1 141940Z 19012KT 00/M01 A3026 RMK A01 T00011009  RH  093%=      5-min Rain = 0
KNH1 141941Z 19011KT 00/01 A3026 RMK A01 T000000-9  RH  093%=      5-min Rain = 0
KNH1 141942Z 20010KT 00/01 A3026 RMK A01 T000000-9  RH  093%=      5-min Rain = 0
KNH1 141943Z 19008KT 00/M01 A3026 RMK A01 T00011008  RH  094%=      5-min Rain = 0
KNH1 141944Z 18007KT 00/M01 A3026 RMK A01 T00011007  RH  094%=      5-min Rain = 0
KNH1 141945Z 18009KT 00/M01 A3026 RMK A01 T00021007  RH  094%=      5-min Rain = 0
KNH1 141946Z 18011KT 00/M01 A3026 RMK A01 T00021007  RH  094%=      5-min Rain = 0
KNH1 141947Z 18008KT 00/M01 A3026 RMK A01 T00021008  RH  093%=      5-min Rain = 0
KNH1 141948Z 19007KT 00/M01 A3026 RMK A01 T00021008  RH  093%=      5-min Rain = 0
KNH1 141949Z 19008KT 00/M01 A3026 RMK A01 T00021008  RH  093%=      5-min Rain = 0
KNH1 141950Z 18007KT 00/M01 A3025 RMK A01 T00021008  RH  093%=      5-min Rain = 0
KNH1 141951Z 17008KT 00/M01 A3025 RMK A01 T00021007  RH  093%=      5-min Rain = 0
KNH1 141952Z 18009KT 00/M01 A3025 RMK A01 T00021008  RH  093%=      5-min Rain = 0
KNH1 141953Z 16008KT 00/M01 A3025 RMK A01 T00021008  RH  093%=      5-min Rain = 0
KNH1 141954Z 18007KT 00/M01 A3025 RMK A01 T00021008  RH  093%=      5-min Rain = 0
KNH1 141955Z 18008KT 00/M01 A3025 RMK A01 T00031007  RH  094%=      5-min Rain = 0
KNH1 141956Z 18010KT 00/M01 A3025 RMK A01 T00031006  RH  094%=      5-min Rain = 0
KNH1 141957Z 18008KT 00/M01 A3025 RMK A01 T00031007  RH  093%=      5-min Rain = 0
KNH1 141958Z 17010KT 00/M01 A3025 RMK A01 T00031007  RH  093%=      5-min Rain = 0
KNH1 141959Z 17010KT 00/M01 A3025 RMK A01 T00031008  RH  093%=      5-min Rain = 0
KNH1 142000Z 18010KT 00/M01 A3025 RMK A01 T00021008  RH  093%=      5-min Rain = 0
KNH1 142001Z 19009KT 00/M01 A3025 RMK A01 T00021009  RH  093%=      5-min Rain = 0
KNH1 142002Z 18008KT 00/M01 A3025 RMK A01 T00021008  RH  093%=      5-min Rain = 0
KNH1 142003Z 18009KT 00/M01 A3025 RMK A01 T00031006  RH  094%=      5-min Rain = 0
KNH1 142004Z 18010KT 00/M01 A3025 RMK A01 T00031006  RH  093%=      5-min Rain = 0
KNH1 142005Z 18010KT 00/M01 A3025 RMK A01 T00031007  RH  093%=      5-min Rain = 0
KNH1 142006Z 18009KT 00/M01 A3025 RMK A01 T00021008  RH  093%=      5-min Rain = 0
KNH1 142007Z 19009KT 00/M01 A3025 RMK A01 T00011009  RH  093%=      5-min Rain = 0
KNH1 142008Z 18010KT 00/M01 A3024 RMK A01 T00021008  RH  093%=      5-min Rain = 0
KNH1 142009Z 17010KT 00/M01 A3024 RMK A01 T00021007  RH  093%=      5-min Rain = 0
KNH1 142010Z 19009KT 00/M01 A3024 RMK A01 T00031007  RH  094%=      5-min Rain = 0
KNH1 142011Z 19012KT 00/M01 A3024 RMK A01 T00031006  RH  093%=      5-min Rain = 0
KNH1 142012Z 19010KT 00/M01 A3024 RMK A01 T00031007  RH  093%=      5-min Rain = 0
KNH1 142013Z 19009KT 00/M01 A3024 RMK A01 T00021009  RH  093%=      5-min Rain = 0
KNH1 142014Z 18009KT 00/M01 A3024 RMK A01 T00021008  RH  093%=      5-min Rain = 0
KNH1 142015Z 17010KT 00/M01 A3024 RMK A01 T00031007  RH  093%=      5-min Rain = 0
KNH1 142016Z 18012KT 00/M01 A3024 RMK A01 T00031007  RH  093%=      5-min Rain = 0
KNH1 142017Z 17011KT 00/M01 A3024 RMK A01 T00031007  RH  093%=      5-min Rain = 0
KNH1 142018Z 19009KT 00/M01 A3024 RMK A01 T00031007  RH  093%=      5-min Rain = 0
KNH1 142019Z 18011KT 00/M01 A3024 RMK A01 T00031007  RH  093%=      5-min Rain = 0
KNH1 142020Z 19011KT 00/M01 A3024 RMK A01 T00041007  RH  093%=      5-min Rain = 0
KNH1 142021Z 19010KT 00/M01 A3023 RMK A01 T00041006  RH  093%=      5-min Rain = 0
KNH1 142022Z 20009KT 00/M01 A3023 RMK A01 T00041006  RH  092%=      5-min Rain = 0
KNH1 142023Z 19009KT 00/M01 A3023 RMK A01 T00041007  RH  092%=      5-min Rain = 0
KNH1 142024Z 18009KT 01/M01 A3023 RMK A01 T00051006  RH  092%=      5-min Rain = 0
KNH1 142025Z 18009KT 01/M01 A3023 RMK A01 T00051005  RH  092%=      5-min Rain = 0
KNH1 142026Z 18008KT 01/M00 A3023 RMK A01 T00071004  RH  092%=      5-min Rain = 0
KNH1 142027Z 19009KT 01/M00 A3023 RMK A01 T00081004  RH  092%=      5-min Rain = 0
KNH1 142028Z 19011KT 01/M01 A3023 RMK A01 T00091005  RH  091%=      5-min Rain = 0
KNH1 142029Z 19011KT 01/M01 A3023 RMK A01 T00081006  RH  090%=      5-min Rain = 0
KNH1 142030Z 19010KT 01/M01 A3023 RMK A01 T00071007  RH  090%=      5-min Rain = 0
KNH1 142031Z 20009KT 01/M01 A3023 RMK A01 T00071006  RH  091%=      5-min Rain = 0
KNH1 142032Z 19010KT 01/M00 A3023 RMK A01 T00081004  RH  091%=      5-min Rain = 0
KNH1 142033Z 17008KT 01/M01 A3023 RMK A01 T00091005  RH  091%=      5-min Rain = 0
KNH1 142034Z 18009KT 01/M01 A3023 RMK A01 T00091005  RH  090%=      5-min Rain = 0
KNH1 142035Z 18008KT 01/M01 A3023 RMK A01 T00091006  RH  090%=      5-min Rain = 0
KNH1 142036Z 19009KT 01/M01 A3022 RMK A01 T00091005  RH  090%=      5-min Rain = 0
KNH1 142037Z 20010KT 01/M00 A3022 RMK A01 T00101004  RH  091%=      5-min Rain = 0
KNH1 142038Z 18011KT 01/M00 A3022 RMK A01 T00111003  RH  090%=      5-min Rain = 0
KNH1 142039Z 19010KT 01/M00 A3022 RMK A01 T00121004  RH  089%=      5-min Rain = 0
KNH1 142040Z 19012KT 01/M01 A3022 RMK A01 T00111007  RH  088%=      5-min Rain = 0
KNH1 142041Z 20010KT 01/M01 A3022 RMK A01 T00111005  RH  089%=      5-min Rain = 0
KNH1 142042Z 20010KT 01/M00 A3022 RMK A01 T00121004  RH  089%=      5-min Rain = 0
KNH1 142043Z 20008KT 01/M00 A3022 RMK A01 T00121004  RH  089%=      5-min Rain = 0
KNH1 142044Z 20010KT 01/M01 A3022 RMK A01 T00121005  RH  088%=      5-min Rain = 0
KNH1 142045Z 19009KT 01/M01 A3022 RMK A01 T00121006  RH  088%=      5-min Rain = 0
KNH1 142046Z 19008KT 01/M01 A3022 RMK A01 T00121006  RH  088%=      5-min Rain = 0
KNH1 142047Z 18008KT 01/M01 A3022 RMK A01 T00121006  RH  088%=      5-min Rain = 0
KNH1 142048Z 19010KT 01/M00 A3022 RMK A01 T00131004  RH  089%=      5-min Rain = 0
KNH1 142049Z 19009KT 01/M01 A3022 RMK A01 T00131005  RH  088%=      5-min Rain = 0
KNH1 142050Z 18010KT 01/M01 A3022 RMK A01 T00131006  RH  088%=      5-min Rain = 0
KNH1 142051Z 19011KT 01/M01 A3022 RMK A01 T00131005  RH  088%=      5-min Rain = 0
KNH1 142052Z 19010KT 01/M01 A3022 RMK A01 T00131006  RH  088%=      5-min Rain = 0
KNH1 142053Z 19010KT 01/M01 A3022 RMK A01 T00131005  RH  088%=      5-min Rain = 0
KNH1 142054Z 19009KT 01/M01 A3022 RMK A01 T00131006  RH  087%=      5-min Rain = 0
KNH1 142055Z 20011KT 01/M01 A3022 RMK A01 T00131005  RH  087%=      5-min Rain = 0
KNH1 142056Z 21011KT 01/M01 A3022 RMK A01 T00141005  RH  087%=      5-min Rain = 0
KNH1 142057Z 20010KT 02/M01 A3021 RMK A01 T00151005  RH  087%=      5-min Rain = 0
KNH1 142058Z 20010KT 02/M01 A3021 RMK A01 T00151005  RH  087%=      5-min Rain = 0
KNH1 142059Z 19009KT 02/M01 A3021 RMK A01 T00151005  RH  086%=      5-min Rain = 0
KNH1 142100Z 21009KT 02/M01 A3021 RMK A01 T00161005  RH  086%=      5-min Rain = 0
KNH1 142101Z 20010KT 02/M01 A3021 RMK A01 T00161005  RH  086%=      5-min Rain = 0
KNH1 142102Z 20011KT 02/M01 A3021 RMK A01 T00151006  RH  086%=      5-min Rain = 0
KNH1 142103Z 19010KT 02/M01 A3021 RMK A01 T00151005  RH  086%=      5-min Rain = 0
KNH1 142104Z 20009KT 02/M01 A3021 RMK A01 T00151006  RH  086%=      5-min Rain = 0
KNH1 142105Z 19009KT 02/M01 A3021 RMK A01 T00151005  RH  086%=      5-min Rain = 0
KNH1 142106Z 19013KT 02/M01 A3021 RMK A01 T00151005  RH  086%=      5-min Rain = 0
KNH1 142107Z 19012KT 02/M01 A3021 RMK A01 T00151005  RH  086%=      5-min Rain = 0
KNH1 142108Z 19010KT 02/M01 A3021 RMK A01 T00151005  RH  086%=      5-min Rain = 0
KNH1 142109Z 18010KT 02/M01 A3021 RMK A01 T00151005  RH  086%=      5-min Rain = 0
KNH1 142110Z 18009KT 02/M00 A3021 RMK A01 T00151004  RH  087%=      5-min Rain = 0
KNH1 142111Z 18012KT 02/M00 A3021 RMK A01 T00151004  RH  087%=      5-min Rain = 0
KNH1 142112Z 17009KT 02/M00 A3021 RMK A01 T00151004  RH  087%=      5-min Rain = 0
KNH1 142113Z 18012KT 02/M00 A3021 RMK A01 T00151003  RH  087%=      5-min Rain = 0
KNH1 142114Z 18010KT 02/M00 A3021 RMK A01 T00151004  RH  087%=      5-min Rain = 0
KNH1 142115Z 17010KT 02/M00 A3021 RMK A01 T00151004  RH  087%=      5-min Rain = 0
KNH1 142116Z 18009KT 01/M01 A3021 RMK A01 T00141006  RH  087%=      5-min Rain = 0
KNH1 142117Z 18008KT 01/M01 A3021 RMK A01 T00141005  RH  088%=      5-min Rain = 0
KNH1 142118Z 18011KT 01/M00 A3021 RMK A01 T00141004  RH  088%=      5-min Rain = 0
KNH1 142119Z 18010KT 01/M00 A3021 RMK A01 T00141004  RH  087%=      5-min Rain = 0
KNH1 142120Z 19011KT 02/M00 A3021 RMK A01 T00151004  RH  088%=      5-min Rain = 0
KNH1 142121Z 19009KT 02/M00 A3021 RMK A01 T00151004  RH  087%=      5-min Rain = 0
KNH1 142122Z 18008KT 02/M00 A3021 RMK A01 T00161003  RH  087%=      5-min Rain = 0
KNH1 142123Z 19008KT 02/M00 A3021 RMK A01 T00171002  RH  088%=      5-min Rain = 0
KNH1 142124Z 18009KT 02/M00 A302 RMK A01 T00181002  RH  087%=      5-min Rain = 0
KNH1 142125Z 18011KT 02/M00 A302 RMK A01 T00181003  RH  086%=      5-min Rain = 0
KNH1 142126Z 18009KT 02/M01 A302 RMK A01 T00171005  RH  086%=      5-min Rain = 0
KNH1 142127Z 18011KT 02/M01 A302 RMK A01 T00161005  RH  086%=      5-min Rain = 0
KNH1 142128Z 17011KT 02/M01 A302 RMK A01 T00161005  RH  086%=      5-min Rain = 0
KNH1 142129Z 17011KT 02/M01 A302 RMK A01 T00151005  RH  086%=      5-min Rain = 0
KNH1 142130Z 17012KT 02/M01 A302 RMK A01 T00151005  RH  087%=      5-min Rain = 0
KNH1 142131Z 17010KT 02/M01 A302 RMK A01 T00151005  RH  087%=      5-min Rain = 0
KNH1 142132Z 18012KT 02/M00 A302 RMK A01 T00151004  RH  087%=      5-min Rain = 0
KNH1 142133Z 18011KT 02/M00 A302 RMK A01 T00151004  RH  087%=      5-min Rain = 0
KNH1 142134Z 18011KT 02/M00 A302 RMK A01 T00151004  RH  087%=      5-min Rain = 0
KNH1 142135Z 18010KT 02/M00 A302 RMK A01 T00151004  RH  087%=      5-min Rain = 0
KNH1 142136Z 18009KT 02/M01 A302 RMK A01 T00151005  RH  087%=      5-min Rain = 0
KNH1 142137Z 17011KT 02/M00 A302 RMK A01 T00161004  RH  087%=      5-min Rain = 0
KNH1 142138Z 18010KT 02/M01 A302 RMK A01 T00161005  RH  086%=      5-min Rain = 0
KNH1 142139Z 18013KT 02/M01 A302 RMK A01 T00161005  RH  086%=      5-min Rain = 0
KNH1 142140Z 18012KT 02/M00 A302 RMK A01 T00161004  RH  086%=      5-min Rain = 0
KNH1 142141Z 17012KT 02/M01 A302 RMK A01 T00161005  RH  086%=      5-min Rain = 0
KNH1 142142Z 18009KT 02/M01 A302 RMK A01 T00161005  RH  086%=      5-min Rain = 0
KNH1 142143Z 17007KT 02/M00 A302 RMK A01 T00161004  RH  086%=      5-min Rain = 0
KNH1 142144Z 18007G12KT 02/M00 A302 RMK A01 T00171003  RH  087%=      5-min Rain = 0
KNH1 142145Z 18012KT 02/M00 A302 RMK A01 T00181002  RH  086%=      5-min Rain = 0
KNH1 142146Z 18010KT 02/M00 A302 RMK A01 T00181003  RH  086%=      5-min Rain = 0
KNH1 142147Z 18011KT 02/M00 A302 RMK A01 T00181003  RH  086%=      5-min Rain = 0
KNH1 142148Z 18011KT 02/M00 A302 RMK A01 T00181004  RH  086%=      5-min Rain = 0
KNH1 142149Z 17009KT 02/M00 A302 RMK A01 T00171004  RH  086%=      5-min Rain = 0
KNH1 142150Z 18007KT 02/M00 A302 RMK A01 T00181003  RH  086%=      5-min Rain = 0
KNH1 142151Z 18009KT 02/M00 A302 RMK A01 T00181002  RH  086%=      5-min Rain = 0
KNH1 142152Z 19010KT 02/M00 A302 RMK A01 T00191002  RH  086%=      5-min Rain = 0
KNH1 142153Z 18011KT 02/M00 A302 RMK A01 T00191002  RH  086%=      5-min Rain = 0
KNH1 142154Z 18011KT 02/M00 A302 RMK A01 T00191003  RH  085%=      5-min Rain = 0
KNH1 142155Z 17012KT 02/M00 A302 RMK A01 T00181004  RH  085%=      5-min Rain = 0
KNH1 142156Z 18012KT 02/M00 A302 RMK A01 T00171004  RH  086%=      5-min Rain = 0
KNH1 142157Z 18010KT 02/M00 A302 RMK A01 T00171003  RH  086%=      5-min Rain = 0
KNH1 142158Z 18011KT 02/M00 A3019 RMK A01 T00181003  RH  086%=      5-min Rain = 0
KNH1 142159Z 18012KT 02/M00 A3019 RMK A01 T00181003  RH  086%=      5-min Rain = 0
KNH1 142200Z 18011KT 02/M00 A3019 RMK A01 T00181003  RH  086%=      5-min Rain = 0
KNH1 142201Z 19012KT 02/M00 A3019 RMK A01 T00181003  RH  086%=      5-min Rain = 0
KNH1 142202Z 19009KT 02/M00 A3019 RMK A01 T00191003  RH  086%=      5-min Rain = 0
KNH1 142203Z 19010KT 02/M00 A3019 RMK A01 T00181003  RH  086%=      5-min Rain = 0
KNH1 142204Z 18010KT 02/M00 A3019 RMK A01 T00191002  RH  086%=      5-min Rain = 0
KNH1 142205Z 18010KT 02/M00 A3019 RMK A01 T00201002  RH  086%=      5-min Rain = 0
KNH1 142206Z 18012KT 02/M00 A3019 RMK A01 T00191002  RH  086%=      5-min Rain = 0
KNH1 142207Z 18012KT 02/M00 A3019 RMK A01 T00191002  RH  086%=      5-min Rain = 0
KNH1 142208Z 18011KT 02/M00 A3019 RMK A01 T00191002  RH  086%=      5-min Rain = 0
KNH1 142209Z 17010KT 02/M00 A3019 RMK A01 T00191002  RH  086%=      5-min Rain = 0
KNH1 142210Z 18008KT 02/M00 A3019 RMK A01 T00191002  RH  086%=      5-min Rain = 0
KNH1 142211Z 18011KT 02/M00 A3019 RMK A01 T00201001  RH  086%=      5-min Rain = 0
KNH1 142212Z 17011KT 02/M00 A3019 RMK A01 T00201001  RH  086%=      5-min Rain = 0
KNH1 142213Z 17011KT 02/M00 A3019 RMK A01 T00201002  RH  085%=      5-min Rain = 0
KNH1 142214Z 18010KT 02/M00 A3019 RMK A01 T00191003  RH  085%=      5-min Rain = 0
KNH1 142215Z 18012KT 02/M00 A3019 RMK A01 T00191002  RH  086%=      5-min Rain = 0
KNH1 142216Z 18012KT 02/M00 A3019 RMK A01 T00191002  RH  086%=      5-min Rain = 0
KNH1 142217Z 18010KT 02/M00 A3019 RMK A01 T00191002  RH  086%=      5-min Rain = 0
KNH1 142218Z 18011KT 02/M00 A3019 RMK A01 T00191002  RH  086%=      5-min Rain = 0
KNH1 142219Z 19010KT 02/M00 A3019 RMK A01 T00191002  RH  086%=      5-min Rain = 0
KNH1 142220Z 18011KT 02/M00 A3019 RMK A01 T00201001  RH  086%=      5-min Rain = 0
KNH1 142221Z 18009KT 02/M00 A3019 RMK A01 T00201001  RH  086%=      5-min Rain = 0
KNH1 142222Z 17009KT 02/M00 A3019 RMK A01 T00211001  RH  086%=      5-min Rain = 0
KNH1 142223Z 17011KT 02/M00 A3019 RMK A01 T00211001  RH  086%=      5-min Rain = 0
KNH1 142224Z 17010KT 02/M00 A3019 RMK A01 T00211001  RH  085%=      5-min Rain = 0
KNH1 142225Z 18011KT 02/M00 A3019 RMK A01 T00211001  RH  085%=      5-min Rain = 0
KNH1 142226Z 17013KT 02/M00 A3019 RMK A01 T00201002  RH  085%=      5-min Rain = 0
KNH1 142227Z 17011KT 02/M00 A3019 RMK A01 T00191003  RH  085%=      5-min Rain = 0
KNH1 142228Z 17011KT 02/M00 A3019 RMK A01 T00191002  RH  086%=      5-min Rain = 0
KNH1 142229Z 17008KT 02/M00 A3019 RMK A01 T00181003  RH  086%=      5-min Rain = 0
KNH1 142230Z 17010KT 02/M00 A3019 RMK A01 T00191002  RH  087%=      5-min Rain = 0
KNH1 142231Z 18011KT 02/M00 A3019 RMK A01 T00191001  RH  086%=      5-min Rain = 0
KNH1 142232Z 18012KT 02/M00 A3019 RMK A01 T00201001  RH  086%=      5-min Rain = 0
KNH1 142233Z 18011KT 02/M00 A3019 RMK A01 T00201001  RH  086%=      5-min Rain = 0
KNH1 142234Z 18010KT 02/M00 A3019 RMK A01 T00201001  RH  086%=      5-min Rain = 0
KNH1 142235Z 18009KT 02/M00 A3019 RMK A01 T00201001  RH  086%=      5-min Rain = 0
KNH1 142236Z 17010KT 02/M00 A3019 RMK A01 T00201001  RH  086%=      5-min Rain = 0
KNH1 142237Z 17008KT 02/00 A3019 RMK A01 T002100-0  RH  086%=      5-min Rain = 0
KNH1 142238Z 16010KT 02/M00 A3019 RMK A01 T00211001  RH  085%=      5-min Rain = 0
KNH1 142239Z 19011KT 02/M00 A3019 RMK A01 T00211002  RH  085%=      5-min Rain = 0
KNH1 142240Z 18012KT 02/M00 A3019 RMK A01 T00211001  RH  085%=      5-min Rain = 0
KNH1 142241Z 18011KT 02/M00 A3018 RMK A01 T00211001  RH  085%=      5-min Rain = 0
KNH1 142242Z 18009KT 02/M00 A3018 RMK A01 T00201002  RH  085%=      5-min Rain = 0
KNH1 142243Z 18010KT 02/M00 A3018 RMK A01 T00201001  RH  086%=      5-min Rain = 0
KNH1 142244Z 18013KT 02/00 A3018 RMK A01 T00220000  RH  086%=      5-min Rain = 0
KNH1 142245Z 18013KT 02/00 A3018 RMK A01 T002200-0  RH  085%=      5-min Rain = 0
KNH1 142246Z 18012KT 02/M00 A3018 RMK A01 T00221001  RH  085%=      5-min Rain = 0
KNH1 142247Z 18013KT 02/M00 A3018 RMK A01 T00221001  RH  085%=      5-min Rain = 0
KNH1 142248Z 17011KT 02/00 A3019 RMK A01 T002200-0  RH  085%=      5-min Rain = 0
KNH1 142249Z 17010KT 02/00 A3019 RMK A01 T002100-0  RH  086%=      5-min Rain = 0
KNH1 142250Z 17010KT 02/00 A3018 RMK A01 T002100-0  RH  086%=      5-min Rain = 0
KNH1 142251Z 17012KT 02/00 A3018 RMK A01 T00210000  RH  086%=      5-min Rain = 0
KNH1 142252Z 18010KT 02/00 A3018 RMK A01 T00210001  RH  086%=      5-min Rain = 0
KNH1 142253Z 18010KT 02/00 A3018 RMK A01 T00220002  RH  087%=      5-min Rain = 0
KNH1 142254Z 18011KT 02/00 A3018 RMK A01 T00220001  RH  086%=      5-min Rain = 0
KNH1 142255Z 19013KT 02/00 A3018 RMK A01 T00220001  RH  086%=      5-min Rain = 0
KNH1 142256Z 19012KT 02/00 A3018 RMK A01 T002200-0  RH  085%=      5-min Rain = 0
KNH1 142257Z 19012KT 02/00 A3018 RMK A01 T00220000  RH  086%=      5-min Rain = 0
KNH1 142258Z 19012KT 02/00 A3018 RMK A01 T00220000  RH  086%=      5-min Rain = 0
KNH1 142259Z 20012KT 02/00 A3018 RMK A01 T00220000  RH  086%=      5-min Rain = 0
KNH1 142300Z 19011KT 02/00 A3018 RMK A01 T00210000  RH  086%=      5-min Rain = 0
KNH1 142301Z 19011KT 02/00 A3018 RMK A01 T00220001  RH  086%=      5-min Rain = 0
KNH1 142302Z 18010KT 02/00 A3018 RMK A01 T00220001  RH  086%=      5-min Rain = 0
KNH1 142303Z 18009KT 02/00 A3018 RMK A01 T00220001  RH  086%=      5-min Rain = 0
KNH1 142304Z 18010KT 02/00 A3018 RMK A01 T00220001  RH  086%=      5-min Rain = 0
KNH1 142305Z 18009KT 02/00 A3018 RMK A01 T00220002  RH  087%=      5-min Rain = 0
KNH1 142306Z 16007KT 02/00 A3018 RMK A01 T00230002  RH  087%=      5-min Rain = 0
KNH1 142307Z 17008KT 02/00 A3018 RMK A01 T00230003  RH  087%=      5-min Rain = 0
KNH1 142308Z 17009KT 02/00 A3018 RMK A01 T00230003  RH  087%=      5-min Rain = 0
KNH1 142309Z 17009KT 02/00 A3018 RMK A01 T00230003  RH  086%=      5-min Rain = 0
KNH1 142310Z 18008KT 02/00 A3018 RMK A01 T00240003  RH  086%=      5-min Rain = 0
KNH1 142311Z 18008KT 02/00 A3018 RMK A01 T00240004  RH  087%=      5-min Rain = 0
KNH1 142312Z 17009KT 02/00 A3018 RMK A01 T00240004  RH  087%=      5-min Rain = 0
KNH1 142313Z 18009G14KT 02/00 A3018 RMK A01 T00240004  RH  087%=      5-min Rain = 0
KNH1 142314Z 18011KT 02/00 A3018 RMK A01 T00240004  RH  087%=      5-min Rain = 0
KNH1 142315Z 18011KT 02/00 A3018 RMK A01 T00230004  RH  087%=      5-min Rain = 0
KNH1 142316Z 17012KT 02/00 A3018 RMK A01 T00230004  RH  087%=      5-min Rain = 0
KNH1 142317Z 17010KT 02/00 A3018 RMK A01 T00230004  RH  087%=      5-min Rain = 0
KNH1 142318Z 17009KT 02/00 A3018 RMK A01 T00220003  RH  087%=      5-min Rain = 0
KNH1 142319Z 17008KT 02/00 A3018 RMK A01 T00220004  RH  088%=      5-min Rain = 0
KNH1 142320Z 17007KT 02/00 A3018 RMK A01 T00220004  RH  088%=      5-min Rain = 0
KNH1 142321Z 18008G13KT 02/00 A3018 RMK A01 T00220004  RH  088%=      5-min Rain = 0
KNH1 142322Z 18009KT 02/01 A3018 RMK A01 T00230005  RH  088%=      5-min Rain = 0
KNH1 142323Z 18008KT 02/01 A3018 RMK A01 T00240005  RH  088%=      5-min Rain = 0
KNH1 142324Z 18008KT 02/01 A3018 RMK A01 T00240005  RH  087%=      5-min Rain = 0
KNH1 142325Z 18009KT 02/00 A3018 RMK A01 T00240004  RH  087%=      5-min Rain = 0
KNH1 142326Z 19007KT 02/00 A3018 RMK A01 T00240004  RH  087%=      5-min Rain = 0
KNH1 142327Z 20010KT 02/00 A3018 RMK A01 T00240004  RH  087%=      5-min Rain = 0
KNH1 142328Z 20010KT 03/00 A3018 RMK A01 T00250004  RH  086%=      5-min Rain = 0
KNH1 142329Z 20012KT 03/00 A3018 RMK A01 T00250004  RH  086%=      5-min Rain = 0
KNH1 142330Z 19010KT 03/00 A3018 RMK A01 T00250003  RH  086%=      5-min Rain = 0
KNH1 142331Z 19010KT 03/00 A3018 RMK A01 T00250003  RH  086%=      5-min Rain = 0
KNH1 142332Z 19010KT 03/00 A3018 RMK A01 T00250003  RH  086%=      5-min Rain = 0
KNH1 142333Z 19008KT 03/00 A3018 RMK A01 T00250004  RH  086%=      5-min Rain = 0
KNH1 142334Z 19008KT 03/00 A3018 RMK A01 T00260004  RH  085%=      5-min Rain = 0
KNH1 142335Z 18008KT 03/00 A3018 RMK A01 T00270004  RH  085%=      5-min Rain = 0
KNH1 142336Z 18010KT 03/01 A3018 RMK A01 T00280005  RH  085%=      5-min Rain = 0
KNH1 142337Z 18011KT 03/01 A3018 RMK A01 T00280005  RH  084%=      5-min Rain = 0
KNH1 142338Z 19011KT 03/00 A3018 RMK A01 T00290004  RH  084%=      5-min Rain = 0
KNH1 142339Z 18010KT 03/00 A3018 RMK A01 T00290004  RH  084%=      5-min Rain = 0
KNH1 142340Z 18010KT 03/01 A3018 RMK A01 T00290005  RH  084%=      5-min Rain = 0
KNH1 142341Z 18009KT 03/01 A3017 RMK A01 T00290005  RH  084%=      5-min Rain = 0
KNH1 142342Z 19009KT 03/01 A3017 RMK A01 T00290005  RH  084%=      5-min Rain = 0
KNH1 142343Z 18009KT 03/01 A3017 RMK A01 T00290005  RH  084%=      5-min Rain = 0
KNH1 142344Z 18009KT 03/01 A3017 RMK A01 T00290005  RH  084%=      5-min Rain = 0
KNH1 142345Z 18007KT 03/00 A3017 RMK A01 T00290004  RH  084%=      5-min Rain = 0
KNH1 142346Z 17006KT 03/01 A3017 RMK A01 T00290005  RH  084%=      5-min Rain = 0
KNH1 142347Z 17008KT 03/01 A3017 RMK A01 T00290005  RH  084%=      5-min Rain = 0
KNH1 142348Z 17006KT 03/01 A3017 RMK A01 T00290005  RH  084%=      5-min Rain = 0
KNH1 142349Z 18006KT 03/01 A3017 RMK A01 T00290005  RH  084%=      5-min Rain = 0
KNH1 142350Z 18009KT 03/01 A3017 RMK A01 T00290005  RH  084%=      5-min Rain = 0
KNH1 142351Z 18008KT 03/01 A3017 RMK A01 T00290005  RH  084%=      5-min Rain = 0
KNH1 142352Z 18008KT 03/01 A3017 RMK A01 T00290005  RH  084%=      5-min Rain = 0
KNH1 142353Z 18009KT 03/01 A3017 RMK A01 T00290005  RH  084%=      5-min Rain = 0
KNH1 142354Z 18008KT 03/01 A3017 RMK A01 T00300005  RH  084%=      5-min Rain = 0
KNH1 142355Z 18007KT 03/01 A3017 RMK A01 T00290005  RH  084%=      5-min Rain = 0
KNH1 142356Z 18009KT 03/01 A3017 RMK A01 T00290005  RH  084%=      5-min Rain = 0
KNH1 142357Z 18009KT 03/01 A3017 RMK A01 T00290005  RH  084%=      5-min Rain = 0
KNH1 142358Z 18010KT 03/01 A3017 RMK A01 T00290005  RH  084%=      5-min Rain = 0
KNH1 142359Z 17009KT 03/01 A3017 RMK A01 T00290005  RH  084%=      5-min Rain = 0
KNH1 150000Z 17007KT 03/01 A3017 RMK A01 T00300006  RH  084%=      5-min Rain = 0
KNH1 150001Z 17008KT 03/01 A3017 RMK A01 T00290006  RH  084%=      5-min Rain = 0
KNH1 150002Z 17009KT 03/01 A3017 RMK A01 T00290006  RH  084%=      5-min Rain = 0
KNH1 150003Z 17007KT 03/01 A3017 RMK A01 T00290005  RH  084%=      5-min Rain = 0
KNH1 150004Z 17007KT 03/01 A3017 RMK A01 T00290006  RH  085%=      5-min Rain = 0
KNH1 150005Z 17007KT 03/01 A3017 RMK A01 T00290006  RH  085%=      5-min Rain = 0
KNH1 150006Z 17006KT 03/01 A3017 RMK A01 T00290006  RH  085%=      5-min Rain = 0
KNH1 150007Z 18007KT 03/01 A3017 RMK A01 T00290006  RH  085%=      5-min Rain = 0
KNH1 150008Z 18006KT 03/01 A3017 RMK A01 T00290006  RH  085%=      5-min Rain = 0
KNH1 150009Z 18007KT 03/01 A3017 RMK A01 T00290006  RH  085%=      5-min Rain = 0
KNH1 150010Z 18007KT 03/01 A3017 RMK A01 T00290006  RH  085%=      5-min Rain = 0
KNH1 150011Z 18007KT 03/01 A3017 RMK A01 T00290006  RH  085%=      5-min Rain = 0
KNH1 150012Z 18006KT 03/01 A3017 RMK A01 T00290006  RH  085%=      5-min Rain = 0
KNH1 150013Z 18009KT 03/01 A3017 RMK A01 T00290006  RH  085%=      5-min Rain = 0
KNH1 150014Z 18009KT 03/01 A3017 RMK A01 T00290006  RH  085%=      5-min Rain = 0
KNH1 150015Z 18008KT 03/01 A3017 RMK A01 T00290006  RH  085%=      5-min Rain = 0
KNH1 150016Z 18009KT 03/01 A3017 RMK A01 T00290006  RH  085%=      5-min Rain = 0
KNH1 150017Z 18009KT 03/01 A3017 RMK A01 T00290006  RH  085%=      5-min Rain = 0
KNH1 150018Z 18009KT 03/01 A3017 RMK A01 T00280006  RH  085%=      5-min Rain = 0
KNH1 150019Z 18008KT 03/01 A3017 RMK A01 T00280006  RH  085%=      5-min Rain = 0
KNH1 150020Z 18007KT 03/01 A3017 RMK A01 T00270005  RH  086%=      5-min Rain = 0
KNH1 150021Z 18007KT 03/01 A3017 RMK A01 T00270005  RH  086%=      5-min Rain = 0
KNH1 150022Z 18007KT 03/01 A3017 RMK A01 T00270005  RH  086%=      5-min Rain = 0
KNH1 150023Z 18007KT 03/01 A3017 RMK A01 T00260005  RH  086%=      5-min Rain = 0
KNH1 150024Z 17006KT 03/01 A3017 RMK A01 T00260005  RH  086%=      5-min Rain = 0
KNH1 150025Z 18005KT 03/01 A3017 RMK A01 T00260005  RH  086%=      5-min Rain = 0
KNH1 150026Z 17005KT 03/01 A3017 RMK A01 T00250005  RH  086%=      5-min Rain = 0
KNH1 150027Z 18005KT 03/01 A3017 RMK A01 T00250005  RH  087%=      5-min Rain = 0
KNH1 150028Z 18005KT 03/01 A3017 RMK A01 T00250005  RH  087%=      5-min Rain = 0
KNH1 150029Z 18005KT 02/01 A3016 RMK A01 T00240005  RH  087%=      5-min Rain = 0
KNH1 150030Z 17004KT 02/00 A3016 RMK A01 T00240004  RH  087%=      5-min Rain = 0
KNH1 150031Z 18004KT 02/00 A3016 RMK A01 T00230004  RH  087%=      5-min Rain = 0
KNH1 150032Z 18004KT 02/00 A3016 RMK A01 T00230004  RH  087%=      5-min Rain = 0
KNH1 150033Z 18004KT 02/00 A3017 RMK A01 T00220004  RH  088%=      5-min Rain = 0
KNH1 150034Z 18004KT 02/00 A3017 RMK A01 T00220004  RH  088%=      5-min Rain = 0
KNH1 150035Z 18004KT 02/00 A3017 RMK A01 T00220004  RH  088%=      5-min Rain = 0
KNH1 150036Z 18004KT 02/00 A3017 RMK A01 T00220004  RH  088%=      5-min Rain = 0
KNH1 150037Z 17003KT 02/00 A3017 RMK A01 T00210004  RH  088%=      5-min Rain = 0
KNH1 150038Z 18003KT 02/00 A3017 RMK A01 T00210003  RH  088%=      5-min Rain = 0
KNH1 150039Z 18003KT 02/00 A3017 RMK A01 T00200003  RH  088%=      5-min Rain = 0
KNH1 150040Z 18003KT 02/00 A3017 RMK A01 T00200002  RH  088%=      5-min Rain = 0
KNH1 150041Z 18003KT 02/00 A3017 RMK A01 T00190003  RH  089%=      5-min Rain = 0
KNH1 150042Z 18003KT 02/00 A3017 RMK A01 T00190002  RH  089%=      5-min Rain = 0
KNH1 150043Z 18003KT 02/00 A3017 RMK A01 T00190003  RH  089%=      5-min Rain = 0
KNH1 150044Z 17003KT 02/00 A3016 RMK A01 T00180002  RH  089%=      5-min Rain = 0
KNH1 150045Z 18003KT 02/00 A3016 RMK A01 T00180002  RH  089%=      5-min Rain = 0
KNH1 150046Z 18003KT 02/00 A3016 RMK A01 T00180002  RH  089%=      5-min Rain = 0
KNH1 150047Z 17003KT 02/00 A3016 RMK A01 T00170002  RH  089%=      5-min Rain = 0
KNH1 150048Z 17003KT 02/00 A3016 RMK A01 T00170001  RH  089%=      5-min Rain = 0
KNH1 150049Z 17003KT 02/00 A3016 RMK A01 T00160000  RH  089%=      5-min Rain = 0
KNH1 150050Z 17003KT 02/00 A3016 RMK A01 T00150000  RH  090%=      5-min Rain = 0
KNH1 150051Z 17003KT 02/M00 A3016 RMK A01 T00151001  RH  089%=      5-min Rain = 0
KNH1 150052Z 17003KT 02/M00 A3016 RMK A01 T00151001  RH  090%=      5-min Rain = 0
KNH1 150053Z 17003KT 01/M00 A3016 RMK A01 T00141001  RH  090%=      5-min Rain = 0
KNH1 150054Z 17003KT 01/M00 A3016 RMK A01 T00141001  RH  090%=      5-min Rain = 0
KNH1 150055Z 17003KT 01/M00 A3016 RMK A01 T00131002  RH  090%=      5-min Rain = 0
KNH1 150056Z 17003KT 01/M00 A3016 RMK A01 T00121002  RH  090%=      5-min Rain = 0
KNH1 150057Z 17003KT 01/M00 A3016 RMK A01 T00121002  RH  090%=      5-min Rain = 0
KNH1 150058Z 17003KT 01/M00 A3016 RMK A01 T00121002  RH  091%=      5-min Rain = 0
KNH1 150059Z 17003KT 01/M00 A3016 RMK A01 T00111002  RH  091%=      5-min Rain = 0
KNH1 150100Z 17003KT 01/M00 A3016 RMK A01 T00111001  RH  091%=      5-min Rain = 0
KNH1 150101Z 17003KT 01/M00 A3016 RMK A01 T00111002  RH  092%=      5-min Rain = 0
KNH1 150102Z 17003KT 01/M00 A3016 RMK A01 T00101002  RH  092%=      5-min Rain = 0
KNH1 150103Z 17003KT 01/M00 A3016 RMK A01 T00101002  RH  092%=      5-min Rain = 0
KNH1 150104Z 17003KT 01/M00 A3016 RMK A01 T00101002  RH  092%=      5-min Rain = 0
KNH1 150105Z 17003KT 01/M00 A3016 RMK A01 T00101002  RH  092%=      5-min Rain = 0
KNH1 150106Z 17004KT 01/M00 A3016 RMK A01 T00101002  RH  092%=      5-min Rain = 0
KNH1 150107Z 17004KT 01/M00 A3016 RMK A01 T00101002  RH  092%=      5-min Rain = 0
KNH1 150108Z 16003KT 01/M00 A3016 RMK A01 T00091002  RH  092%=      5-min Rain = 0
KNH1 150109Z 16003KT 01/M00 A3016 RMK A01 T00091001  RH  093%=      5-min Rain = 0
KNH1 150110Z 16004KT 01/M00 A3016 RMK A01 T00091001  RH  093%=      5-min Rain = 0
KNH1 150111Z 17003KT 01/00 A3016 RMK A01 T00100001  RH  093%=      5-min Rain = 0
KNH1 150112Z 17003KT 01/00 A3016 RMK A01 T00110001  RH  093%=      5-min Rain = 0
KNH1 150113Z 17003KT 01/00 A3016 RMK A01 T00110001  RH  093%=      5-min Rain = 0
KNH1 150114Z 16004KT 01/00 A3016 RMK A01 T001100-0  RH  093%=      5-min Rain = 0
KNH1 150115Z 16003KT 01/00 A3016 RMK A01 T001100-0  RH  092%=      5-min Rain = 0
KNH1 150116Z 16002KT 01/M00 A3016 RMK A01 T00101001  RH  092%=      5-min Rain = 0
KNH1 150117Z 17003KT 01/M00 A3016 RMK A01 T00101001  RH  092%=      5-min Rain = 0
KNH1 150118Z 17004KT 01/M00 A3016 RMK A01 T00091001  RH  093%=      5-min Rain = 0
KNH1 150119Z 16004KT 01/M00 A3016 RMK A01 T00091001  RH  093%=      5-min Rain = 0
KNH1 150120Z 15003KT 01/M00 A3016 RMK A01 T00091001  RH  093%=      5-min Rain = 0
KNH1 150121Z 14003KT 01/M00 A3016 RMK A01 T00091001  RH  093%=      5-min Rain = 0
KNH1 150122Z 14004KT 01/M00 A3016 RMK A01 T00091001  RH  093%=      5-min Rain = 0
KNH1 150123Z 13003KT 01/M00 A3016 RMK A01 T00091001  RH  093%=      5-min Rain = 0
KNH1 150124Z 13003KT 01/M00 A3016 RMK A01 T00081001  RH  093%=      5-min Rain = 0
KNH1 150125Z 13003KT 01/M00 A3016 RMK A01 T00081002  RH  093%=      5-min Rain = 0
KNH1 150126Z 13003KT 01/M00 A3016 RMK A01 T00081002  RH  093%=      5-min Rain = 0
KNH1 150127Z 13003KT 01/M00 A3016 RMK A01 T00071003  RH  093%=      5-min Rain = 0
KNH1 150128Z 14003KT 01/M00 A3016 RMK A01 T00071003  RH  093%=      5-min Rain = 0
KNH1 150129Z 14003KT 01/M00 A3016 RMK A01 T00071002  RH  093%=      5-min Rain = 0
KNH1 150130Z 15003KT 01/M00 A3016 RMK A01 T00071002  RH  094%=      5-min Rain = 0
KNH1 150131Z 15002KT 01/M00 A3016 RMK A01 T00071002  RH  094%=      5-min Rain = 0
KNH1 150132Z 15003KT 01/M00 A3016 RMK A01 T00061003  RH  094%=      5-min Rain = 0
KNH1 150133Z 15003KT 01/M00 A3016 RMK A01 T00071002  RH  094%=      5-min Rain = 0
KNH1 150134Z 15002KT 01/M00 A3016 RMK A01 T00061002  RH  094%=      5-min Rain = 0
KNH1 150135Z 15002KT 01/M00 A3016 RMK A01 T00061002  RH  094%=      5-min Rain = 0
KNH1 150136Z 16002KT 01/M00 A3016 RMK A01 T00061002  RH  094%=      5-min Rain = 0
KNH1 150137Z 16002KT 01/M00 A3016 RMK A01 T00071001  RH  094%=      5-min Rain = 0
KNH1 150138Z 16002KT 01/M00 A3016 RMK A01 T00061002  RH  094%=      5-min Rain = 0
KNH1 150139Z 17002KT 01/M00 A3016 RMK A01 T00061003  RH  094%=      5-min Rain = 0
KNH1 150140Z 17002KT 01/M00 A3016 RMK A01 T00051004  RH  094%=      5-min Rain = 0
KNH1 150141Z 18002KT 00/M01 A3016 RMK A01 T00041005  RH  094%=      5-min Rain = 0
KNH1 150142Z 18002KT 00/M01 A3016 RMK A01 T00041005  RH  094%=      5-min Rain = 0
KNH1 150143Z 18002KT 01/M00 A3016 RMK A01 T00051004  RH  094%=      5-min Rain = 0
KNH1 150144Z 17002KT 01/M00 A3016 RMK A01 T00051004  RH  094%=      5-min Rain = 0
KNH1 150145Z 17002KT 00/M00 A3016 RMK A01 T00041004  RH  094%=      5-min Rain = 0
KNH1 150146Z 17002KT 00/M00 A3016 RMK A01 T00041004  RH  094%=      5-min Rain = 0
KNH1 150147Z 18003KT 00/M00 A3016 RMK A01 T00041004  RH  095%=      5-min Rain = 0
KNH1 150148Z 18003KT 00/M00 A3016 RMK A01 T00041004  RH  095%=      5-min Rain = 0
KNH1 150149Z 19002KT 00/M00 A3016 RMK A01 T00041004  RH  095%=      5-min Rain = 0
KNH1 150150Z 19002KT 00/M01 A3016 RMK A01 T00031005  RH  095%=      5-min Rain = 0
KNH1 150151Z 18003KT 00/M01 A3016 RMK A01 T00021005  RH  095%=      5-min Rain = 0
KNH1 150152Z 19003KT 00/M01 A3016 RMK A01 T00021006  RH  095%=      5-min Rain = 0
KNH1 150153Z 18003KT 00/M01 A3016 RMK A01 T00011006  RH  095%=      5-min Rain = 0
KNH1 150154Z 18003KT 00/M01 A3016 RMK A01 T00011006  RH  095%=      5-min Rain = 0
KNH1 150155Z 17003KT 00/M01 A3016 RMK A01 T00021005  RH  095%=      5-min Rain = 0
KNH1 150156Z 17003KT 00/M01 A3016 RMK A01 T00021005  RH  095%=      5-min Rain = 0
KNH1 150157Z 18003KT 00/M00 A3016 RMK A01 T00031003  RH  096%=      5-min Rain = 0
KNH1 150158Z 17003KT 00/M00 A3016 RMK A01 T00041001  RH  096%=      5-min Rain = 0
KNH1 150159Z 17003KT 01/M00 A3016 RMK A01 T00051001  RH  096%=      5-min Rain = 0
KNH1 150200Z 17003KT 00/M00 A3016 RMK A01 T00041001  RH  096%=      5-min Rain = 0
KNH1 150201Z 16003KT 01/M00 A3016 RMK A01 T00051001  RH  096%=      5-min Rain = 0
KNH1 150202Z 16003KT 01/00 A3016 RMK A01 T000500-0  RH  096%=      5-min Rain = 0
KNH1 150203Z 16003KT 01/00 A3016 RMK A01 T00060001  RH  096%=      5-min Rain = 0
KNH1 150204Z 16003KT 01/00 A3016 RMK A01 T00060001  RH  096%=      5-min Rain = 0
KNH1 150205Z 16003KT 01/00 A3016 RMK A01 T00060001  RH  096%=      5-min Rain = 0
KNH1 150206Z 16002KT 01/00 A3016 RMK A01 T00060001  RH  096%=      5-min Rain = 0
KNH1 150207Z 16002KT 01/00 A3016 RMK A01 T00060001  RH  096%=      5-min Rain = 0
KNH1 150208Z 16001KT 01/00 A3016 RMK A01 T00060000  RH  096%=      5-min Rain = 0
KNH1 150209Z 13000KT 01/00 A3016 RMK A01 T000500-0  RH  096%=      5-min Rain = 0
KNH1 150210Z 12000KT 01/M00 A3016 RMK A01 T00051001  RH  096%=      5-min Rain = 0
KNH1 150211Z 12000KT 00/M00 A3016 RMK A01 T00041002  RH  096%=      5-min Rain = 0
KNH1 150212Z 00000KT 00/M00 A3016 RMK A01 T00031003  RH  095%=      5-min Rain = 0
KNH1 150213Z 00000KT 00/M01 A3016 RMK A01 T00021005  RH  095%=      5-min Rain = 0
KNH1 150214Z 00000KT 00/M01 A3017 RMK A01 T00011006  RH  095%=      5-min Rain = 0
KNH1 150215Z 00000KT 00/01 A3017 RMK A01 T00-000-7  RH  095%=      5-min Rain = 0
KNH1 150216Z 00000KT M00/M01 A3017 RMK A01 T10011008  RH  095%=      5-min Rain = 0
KNH1 150217Z 00000KT M00/M01 A3017 RMK A01 T10011008  RH  095%=      5-min Rain = 0
KNH1 150218Z 00000KT M00/M01 A3017 RMK A01 T10011008  RH  095%=      5-min Rain = 0
KNH1 150219Z 00000KT M00/M01 A3017 RMK A01 T10021009  RH  095%=      5-min Rain = 0
KNH1 150220Z 00000KT M00/M01 A3017 RMK A01 T10021009  RH  095%=      5-min Rain = 0
KNH1 150221Z 00000KT M00/M01 A3017 RMK A01 T10031009  RH  095%=      5-min Rain = 0
KNH1 150222Z 00000KT M00/M01 A3017 RMK A01 T10031010  RH  095%=      5-min Rain = 0
KNH1 150223Z 00000KT M00/M01 A3017 RMK A01 T10041011  RH  095%=      5-min Rain = 0
KNH1 150224Z 00000KT M01/M01 A3017 RMK A01 T10051011  RH  095%=      5-min Rain = 0
KNH1 150225Z 00000KT M01/M01 A3017 RMK A01 T10051012  RH  095%=      5-min Rain = 0
KNH1 150226Z 00000KT M01/M01 A3017 RMK A01 T10051011  RH  095%=      5-min Rain = 0
KNH1 150227Z 17001KT M00/M01 A3017 RMK A01 T10041010  RH  096%=      5-min Rain = 0
KNH1 150228Z 19001KT M00/M01 A3017 RMK A01 T10031009  RH  096%=      5-min Rain = 0
KNH1 150229Z 19001KT M00/M01 A3017 RMK A01 T10021007  RH  096%=      5-min Rain = 0
KNH1 150230Z 19002KT M00/M01 A3017 RMK A01 T10021007  RH  096%=      5-min Rain = 0
KNH1 150231Z 19002KT M00/M01 A3017 RMK A01 T10021007  RH  096%=      5-min Rain = 0
KNH1 150232Z 19002KT M00/M01 A3017 RMK A01 T10021007  RH  096%=      5-min Rain = 0
KNH1 150233Z 19002KT M00/M01 A3017 RMK A01 T10011006  RH  097%=      5-min Rain = 0
KNH1 150234Z 19002KT M00/M01 A3017 RMK A01 T10011006  RH  097%=      5-min Rain = 0
KNH1 150235Z 19003KT 00/01 A3017 RMK A01 T00-000-5  RH  097%=      5-min Rain = 0
KNH1 150236Z 19003KT 00/01 A3017 RMK A01 T00-000-5  RH  097%=      5-min Rain = 0
KNH1 150237Z 19003KT 00/01 A3017 RMK A01 T00-000-5  RH  097%=      5-min Rain = 0
KNH1 150238Z 19003KT 00/01 A3017 RMK A01 T00-000-5  RH  097%=      5-min Rain = 0
KNH1 150239Z 19003KT 00/01 A3016 RMK A01 T00-000-5  RH  097%=      5-min Rain = 0
KNH1 150240Z 19003KT 00/01 A3016 RMK A01 T00-000-5  RH  097%=      5-min Rain = 0
KNH1 150241Z 19004KT 00/01 A3016 RMK A01 T00-000-5  RH  097%=      5-min Rain = 0
KNH1 150242Z 19004KT 00/M00 A3016 RMK A01 T00011004  RH  097%=      5-min Rain = 0
KNH1 150243Z 19004KT 00/M00 A3016 RMK A01 T00011004  RH  097%=      5-min Rain = 0
KNH1 150244Z 19004KT 00/M00 A3017 RMK A01 T00011004  RH  097%=      5-min Rain = 0
KNH1 150245Z 19004KT 00/M00 A3017 RMK A01 T00011004  RH  096%=      5-min Rain = 0
KNH1 150246Z 18004KT 00/M00 A3017 RMK A01 T00011004  RH  096%=      5-min Rain = 0
KNH1 150247Z 18004KT 00/M00 A3017 RMK A01 T00011004  RH  096%=      5-min Rain = 0
KNH1 150248Z 18004KT 00/M00 A3017 RMK A01 T00021003  RH  096%=      5-min Rain = 0
KNH1 150249Z 18004KT 00/M00 A3017 RMK A01 T00011004  RH  096%=      5-min Rain = 0
KNH1 150250Z 19005KT 00/M00 A3017 RMK A01 T00021003  RH  096%=      5-min Rain = 0
KNH1 150251Z 19005KT 00/M00 A3017 RMK A01 T00021003  RH  096%=      5-min Rain = 0
KNH1 150252Z 19005KT 00/M00 A3017 RMK A01 T00011004  RH  096%=      5-min Rain = 0
KNH1 150253Z 19005KT 00/01 A3017 RMK A01 T00-000-6  RH  096%=      5-min Rain = 0
KNH1 150254Z 18005KT M00/M01 A3017 RMK A01 T10011008  RH  095%=      5-min Rain = 0
KNH1 150255Z 18005KT M00/M01 A3017 RMK A01 T10011007  RH  096%=      5-min Rain = 0
KNH1 150256Z 18005KT 00/01 A3017 RMK A01 T00-000-6  RH  096%=      5-min Rain = 0
KNH1 150257Z 18005KT 00/01 A3017 RMK A01 T000000-5  RH  096%=      5-min Rain = 0
KNH1 150258Z 18005KT 00/M00 A3017 RMK A01 T00021004  RH  096%=      5-min Rain = 0
KNH1 150259Z 18005KT 00/M00 A3017 RMK A01 T00021003  RH  096%=      5-min Rain = 0
KNH1 150300Z 18005KT 00/M00 A3017 RMK A01 T00021004  RH  096%=      5-min Rain = 0
KNH1 150301Z 18005KT 00/M00 A3016 RMK A01 T00021004  RH  096%=      5-min Rain = 0
KNH1 150302Z 18005KT 00/M00 A3016 RMK A01 T00021004  RH  096%=      5-min Rain = 0
KNH1 150303Z 18005KT 00/M01 A3016 RMK A01 T00011005  RH  096%=      5-min Rain = 0
KNH1 150304Z 18005KT 00/M01 A3016 RMK A01 T00011005  RH  096%=      5-min Rain = 0
KNH1 150305Z 18006KT 00/M01 A3016 RMK A01 T00011005  RH  096%=      5-min Rain = 0
KNH1 150306Z 18006KT 00/M01 A3016 RMK A01 T00011006  RH  095%=      5-min Rain = 0
KNH1 150307Z 18006KT 00/M01 A3016 RMK A01 T00011006  RH  095%=      5-min Rain = 0
KNH1 150308Z 18005KT 00/M01 A3016 RMK A01 T00011006  RH  095%=      5-min Rain = 0
KNH1 150309Z 17005KT 00/M01 A3016 RMK A01 T00011006  RH  096%=      5-min Rain = 0
KNH1 150310Z 18006KT 00/M01 A3016 RMK A01 T00011006  RH  096%=      5-min Rain = 0
KNH1 150311Z 18006KT 00/M01 A3016 RMK A01 T00011006  RH  096%=      5-min Rain = 0
KNH1 150312Z 18005KT 00/M01 A3016 RMK A01 T00011006  RH  095%=      5-min Rain = 0
KNH1 150313Z 18005KT 00/M01 A3016 RMK A01 T00011006  RH  095%=      5-min Rain = 0
KNH1 150314Z 18005KT 00/M01 A3016 RMK A01 T00011005  RH  096%=      5-min Rain = 0
KNH1 150315Z 18005KT 00/M00 A3016 RMK A01 T00021004  RH  096%=      5-min Rain = 0
KNH1 150316Z 18005KT 00/M00 A3016 RMK A01 T00031003  RH  096%=      5-min Rain = 0
KNH1 150317Z 18004KT 00/M00 A3016 RMK A01 T00031003  RH  096%=      5-min Rain = 0
KNH1 150318Z 18004KT 00/M00 A3016 RMK A01 T00031003  RH  096%=      5-min Rain = 0
KNH1 150319Z 18004KT 00/M00 A3016 RMK A01 T00041003  RH  096%=      5-min Rain = 0
KNH1 150320Z 18004KT 00/M00 A3016 RMK A01 T00031003  RH  096%=      5-min Rain = 0
KNH1 150321Z 18004KT 00/M00 A3016 RMK A01 T00031003  RH  095%=      5-min Rain = 0
KNH1 150322Z 18004KT 00/M00 A3016 RMK A01 T00031003  RH  095%=      5-min Rain = 0
KNH1 150323Z 18004KT 00/M00 A3016 RMK A01 T00031003  RH  095%=      5-min Rain = 0
KNH1 150324Z 18004KT 00/M00 A3017 RMK A01 T00031003  RH  096%=      5-min Rain = 0
KNH1 150325Z 18005KT 00/M00 A3017 RMK A01 T00041003  RH  096%=      5-min Rain = 0
KNH1 150326Z 18005KT 00/M00 A3017 RMK A01 T00031003  RH  096%=      5-min Rain = 0
KNH1 150327Z 18005KT 00/M00 A3017 RMK A01 T00041002  RH  095%=      5-min Rain = 0
KNH1 150328Z 19005KT 00/M00 A3017 RMK A01 T00041003  RH  095%=      5-min Rain = 0
KNH1 150329Z 19005KT 00/M00 A3017 RMK A01 T00041003  RH  095%=      5-min Rain = 0
KNH1 150330Z 19004KT 00/M00 A3017 RMK A01 T00031004  RH  095%=      5-min Rain = 0
KNH1 150331Z 19004KT 00/M00 A3017 RMK A01 T00031004  RH  095%=      5-min Rain = 0
KNH1 150332Z 19005KT 00/M00 A3017 RMK A01 T00031004  RH  095%=      5-min Rain = 0
KNH1 150333Z 19005KT 00/M01 A3017 RMK A01 T00021005  RH  095%=      5-min Rain = 0
KNH1 150334Z 19004KT 00/M01 A3017 RMK A01 T00021005  RH  095%=      5-min Rain = 0
KNH1 150335Z 19004KT 00/M01 A3017 RMK A01 T00021006  RH  095%=      5-min Rain = 0
KNH1 150336Z 19004KT 00/M01 A3017 RMK A01 T00011006  RH  095%=      5-min Rain = 0
KNH1 150337Z 19003KT 00/M01 A3017 RMK A01 T00011006  RH  095%=      5-min Rain = 0
KNH1 150338Z 19004KT 00/01 A3017 RMK A01 T000000-7  RH  095%=      5-min Rain = 0
KNH1 150339Z 19003KT 00/01 A3017 RMK A01 T000000-7  RH  095%=      5-min Rain = 0
KNH1 150340Z 19003KT 00/01 A3017 RMK A01 T000000-7  RH  095%=      5-min Rain = 0
KNH1 150341Z 19003KT 00/01 A3017 RMK A01 T000000-7  RH  095%=      5-min Rain = 0
KNH1 150342Z 19003KT 00/01 A3017 RMK A01 T000000-6  RH  095%=      5-min Rain = 0
KNH1 150343Z 19004KT 00/01 A3017 RMK A01 T000000-6  RH  096%=      5-min Rain = 0
KNH1 150344Z 20003KT 00/01 A3017 RMK A01 T000000-6  RH  096%=      5-min Rain = 0
KNH1 150345Z 19003KT 00/01 A3017 RMK A01 T000000-6  RH  096%=      5-min Rain = 0
KNH1 150346Z 20003KT 00/01 A3017 RMK A01 T000000-6  RH  096%=      5-min Rain = 0
KNH1 150347Z 19003KT 00/01 A3017 RMK A01 T000000-6  RH  096%=      5-min Rain = 0
KNH1 150348Z 19003KT 00/01 A3017 RMK A01 T000000-6  RH  096%=      5-min Rain = 0
KNH1 150349Z 19003KT 00/01 A3017 RMK A01 T00-000-7  RH  096%=      5-min Rain = 0
KNH1 150350Z 19003KT 00/01 A3017 RMK A01 T00-000-6  RH  096%=      5-min Rain = 0
KNH1 150351Z 19003KT 00/01 A3017 RMK A01 T00-000-6  RH  096%=      5-min Rain = 0
KNH1 150352Z 19003KT 00/01 A3017 RMK A01 T00-000-6  RH  096%=      5-min Rain = 0
KNH1 150353Z 20003KT 00/01 A3017 RMK A01 T000000-6  RH  096%=      5-min Rain = 0
KNH1 150354Z 21003KT 00/M01 A3017 RMK A01 T00011005  RH  096%=      5-min Rain = 0
KNH1 150355Z 21003KT 00/M01 A3017 RMK A01 T00011005  RH  096%=      5-min Rain = 0
KNH1 150356Z 21003KT 00/M01 A3017 RMK A01 T00011005  RH  096%=      5-min Rain = 0
KNH1 150357Z 22002KT 00/M01 A3017 RMK A01 T00011005  RH  096%=      5-min Rain = 0
KNH1 150358Z 23002KT M00/M01 A3017 RMK A01 T10011007  RH  096%=      5-min Rain = 0
KNH1 150359Z 22002KT M00/M01 A3017 RMK A01 T10021008  RH  095%=      5-min Rain = 0
KNH1 150400Z 22002KT M00/M01 A3017 RMK A01 T10031010  RH  095%=      5-min Rain = 0
KNH1 150401Z 21002KT M00/M01 A3017 RMK A01 T10031010  RH  095%=      5-min Rain = 0
KNH1 150402Z 21003KT M01/M01 A3017 RMK A01 T10051011  RH  095%=      5-min Rain = 0
KNH1 150403Z 21003KT M01/M01 A3016 RMK A01 T10051012  RH  095%=      5-min Rain = 0
KNH1 150404Z 20003KT M01/M01 A3016 RMK A01 T10061013  RH  095%=      5-min Rain = 0
KNH1 150405Z 20003KT M01/M01 A3016 RMK A01 T10061013  RH  095%=      5-min Rain = 0
KNH1 150406Z 20003KT M01/M01 A3016 RMK A01 T10071014  RH  095%=      5-min Rain = 0
KNH1 150407Z 20003KT M01/M01 A3016 RMK A01 T10071014  RH  095%=      5-min Rain = 0
KNH1 150408Z 20004KT M01/M01 A3016 RMK A01 T10071013  RH  095%=      5-min Rain = 0
KNH1 150409Z 20004KT M01/M01 A3016 RMK A01 T10061012  RH  096%=      5-min Rain = 0
KNH1 150410Z 20004KT M01/M01 A3016 RMK A01 T10061011  RH  096%=      5-min Rain = 0
KNH1 150411Z 20004KT M01/M01 A3016 RMK A01 T10051011  RH  096%=      5-min Rain = 0
KNH1 150412Z 20004KT M01/M01 A3016 RMK A01 T10051011  RH  096%=      5-min Rain = 0
KNH1 150413Z 20005KT M01/M01 A3016 RMK A01 T10061011  RH  096%=      5-min Rain = 0
KNH1 150414Z 20005KT M01/M01 A3016 RMK A01 T10061012  RH  096%=      5-min Rain = 0
KNH1 150415Z 19005KT M01/M01 A3016 RMK A01 T10061012  RH  096%=      5-min Rain = 0
KNH1 150416Z 19005KT M01/M01 A3016 RMK A01 T10051011  RH  096%=      5-min Rain = 0
KNH1 150417Z 19005KT M00/M01 A3016 RMK A01 T10041009  RH  097%=      5-min Rain = 0
KNH1 150418Z 19005KT M00/M01 A3016 RMK A01 T10031008  RH  097%=      5-min Rain = 0
KNH1 150419Z 19005KT M00/M01 A3016 RMK A01 T10021006  RH  097%=      5-min Rain = 0
KNH1 150420Z 19006KT M00/M01 A3016 RMK A01 T10011006  RH  097%=      5-min Rain = 0
KNH1 150421Z 19005KT M00/M01 A3016 RMK A01 T10011005  RH  097%=      5-min Rain = 0
KNH1 150422Z 19006KT 00/01 A3016 RMK A01 T00-000-5  RH  097%=      5-min Rain = 0
KNH1 150423Z 19006KT 00/01 A3016 RMK A01 T00-000-5  RH  097%=      5-min Rain = 0
KNH1 150424Z 19006KT 00/M00 A3016 RMK A01 T00011004  RH  097%=      5-min Rain = 0
KNH1 150425Z 18006KT 00/M00 A3016 RMK A01 T00011003  RH  097%=      5-min Rain = 0
KNH1 150426Z 19006KT 00/M00 A3016 RMK A01 T00021003  RH  097%=      5-min Rain = 0
KNH1 150427Z 18006KT 00/M00 A3016 RMK A01 T00021003  RH  097%=      5-min Rain = 0
KNH1 150428Z 19007KT 00/M00 A3016 RMK A01 T00031002  RH  096%=      5-min Rain = 0
KNH1 150429Z 19007KT 00/M00 A3016 RMK A01 T00041001  RH  096%=      5-min Rain = 0
KNH1 150430Z 19007KT 01/00 A3016 RMK A01 T00050000  RH  096%=      5-min Rain = 0
KNH1 150431Z 18007KT 01/00 A3016 RMK A01 T00060001  RH  096%=      5-min Rain = 0
KNH1 150432Z 18008KT 01/00 A3016 RMK A01 T00080002  RH  096%=      5-min Rain = 0
KNH1 150433Z 18007KT 01/00 A3016 RMK A01 T00090003  RH  096%=      5-min Rain = 0
KNH1 150434Z 19008KT 01/00 A3016 RMK A01 T00100004  RH  095%=      5-min Rain = 0
KNH1 150435Z 19008KT 01/00 A3016 RMK A01 T00110003  RH  095%=      5-min Rain = 0
KNH1 150436Z 19008KT 01/00 A3016 RMK A01 T00110004  RH  095%=      5-min Rain = 0
KNH1 150437Z 19008KT 01/00 A3016 RMK A01 T00120004  RH  095%=      5-min Rain = 0
KNH1 150438Z 19007KT 01/00 A3015 RMK A01 T00120004  RH  094%=      5-min Rain = 0
KNH1 150439Z 19008KT 01/00 A3015 RMK A01 T00130004  RH  094%=      5-min Rain = 0
KNH1 150440Z 19009KT 01/01 A3015 RMK A01 T00140005  RH  094%=      5-min Rain = 0
KNH1 150441Z 18009KT 01/01 A3015 RMK A01 T00140005  RH  094%=      5-min Rain = 0
KNH1 150442Z 19009KT 02/01 A3015 RMK A01 T00150005  RH  093%=      5-min Rain = 0
KNH1 150443Z 19009KT 02/01 A3015 RMK A01 T00150006  RH  093%=      5-min Rain = 0
KNH1 150444Z 19010KT 02/01 A3015 RMK A01 T00150005  RH  093%=      5-min Rain = 0
KNH1 150445Z 19009KT 02/01 A3015 RMK A01 T00160006  RH  093%=      5-min Rain = 0
KNH1 150446Z 19009KT 02/01 A3015 RMK A01 T00170007  RH  093%=      5-min Rain = 0
KNH1 150447Z 19010KT 02/01 A3015 RMK A01 T00180008  RH  093%=      5-min Rain = 0
KNH1 150448Z 19010KT 02/01 A3015 RMK A01 T00190008  RH  093%=      5-min Rain = 0
KNH1 150449Z 19009KT 02/01 A3015 RMK A01 T00190008  RH  092%=      5-min Rain = 0
KNH1 150450Z 19010KT 02/01 A3015 RMK A01 T00200008  RH  092%=      5-min Rain = 0
KNH1 150451Z 19010KT 02/01 A3015 RMK A01 T00190008  RH  092%=      5-min Rain = 0
KNH1 150452Z 19009KT 02/01 A3015 RMK A01 T00200008  RH  092%=      5-min Rain = 0
KNH1 150453Z 19010KT 02/01 A3015 RMK A01 T00200008  RH  092%=      5-min Rain = 0
KNH1 150454Z 19009KT 02/01 A3015 RMK A01 T00210009  RH  092%=      5-min Rain = 0
KNH1 150455Z 19010KT 02/01 A3015 RMK A01 T00210009  RH  092%=      5-min Rain = 0
KNH1 150456Z 19009KT 02/01 A3015 RMK A01 T00210009  RH  092%=      5-min Rain = 0
KNH1 150457Z 19009KT 02/01 A3015 RMK A01 T00210009  RH  092%=      5-min Rain = 0
KNH1 150458Z 19010KT 02/01 A3015 RMK A01 T00210009  RH  092%=      5-min Rain = 0
KNH1 150459Z 19010KT 02/01 A3015 RMK A01 T00210009  RH  092%=      5-min Rain = 0
KNH1 150500Z 19009KT 02/01 A3015 RMK A01 T00220010  RH  092%=      5-min Rain = 0
KNH1 150501Z 19010KT 02/01 A3015 RMK A01 T00220010  RH  092%=      5-min Rain = 0
KNH1 150502Z 19009KT 02/01 A3015 RMK A01 T00220010  RH  092%=      5-min Rain = 0
KNH1 150503Z 19010KT 02/01 A3015 RMK A01 T00220010  RH  092%=      5-min Rain = 0
KNH1 150504Z 19010KT 02/01 A3015 RMK A01 T00220010  RH  092%=      5-min Rain = 0
KNH1 150505Z 19010KT 02/01 A3015 RMK A01 T00220010  RH  092%=      5-min Rain = 0
KNH1 150506Z 19010KT 02/01 A3015 RMK A01 T00220010  RH  092%=      5-min Rain = 0
KNH1 150507Z 19010KT 02/01 A3015 RMK A01 T00220010  RH  092%=      5-min Rain = 0
KNH1 150508Z 18008KT 02/01 A3015 RMK A01 T00220010  RH  092%=      5-min Rain = 0
KNH1 150509Z 19009KT 02/01 A3015 RMK A01 T00220010  RH  092%=      5-min Rain = 0
KNH1 150510Z 19010KT 02/01 A3015 RMK A01 T00230011  RH  092%=      5-min Rain = 0
KNH1 150511Z 19011KT 02/01 A3015 RMK A01 T00230011  RH  092%=      5-min Rain = 0
KNH1 150512Z 19011KT 02/01 A3015 RMK A01 T00230012  RH  092%=      5-min Rain = 0
KNH1 150513Z 19010KT 02/01 A3015 RMK A01 T00240012  RH  092%=      5-min Rain = 0
KNH1 150514Z 19010KT 02/01 A3014 RMK A01 T00240011  RH  091%=      5-min Rain = 0
KNH1 150515Z 19010KT 02/01 A3014 RMK A01 T00240012  RH  091%=      5-min Rain = 0
KNH1 150516Z 19011KT 02/01 A3014 RMK A01 T00240012  RH  091%=      5-min Rain = 0
KNH1 150517Z 19011KT 03/01 A3014 RMK A01 T00250013  RH  092%=      5-min Rain = 0
KNH1 150518Z 19011KT 03/01 A3014 RMK A01 T00260014  RH  092%=      5-min Rain = 0
KNH1 150519Z 19011KT 03/01 A3014 RMK A01 T00270014  RH  091%=      5-min Rain = 0
KNH1 150520Z 19012KT 03/01 A3014 RMK A01 T00270014  RH  091%=      5-min Rain = 0
KNH1 150521Z 19011KT 03/01 A3014 RMK A01 T00280014  RH  091%=      5-min Rain = 0
KNH1 150522Z 19012KT 03/02 A3014 RMK A01 T00290015  RH  091%=      5-min Rain = 0
KNH1 150523Z 19012KT 03/02 A3014 RMK A01 T00300016  RH  090%=      5-min Rain = 0
KNH1 150524Z 19012KT 03/02 A3014 RMK A01 T00310016  RH  090%=      5-min Rain = 0
KNH1 150525Z 19012KT 03/02 A3014 RMK A01 T00320016  RH  090%=      5-min Rain = 0
KNH1 150526Z 19013KT 03/02 A3014 RMK A01 T00320016  RH  089%=      5-min Rain = 0
KNH1 150527Z 19012KT 03/02 A3014 RMK A01 T00330016  RH  089%=      5-min Rain = 0
KNH1 150528Z 19012KT 03/02 A3014 RMK A01 T00320016  RH  089%=      5-min Rain = 0
KNH1 150529Z 19013KT 03/02 A3014 RMK A01 T00330016  RH  089%=      5-min Rain = 0
KNH1 150530Z 19013KT 03/02 A3014 RMK A01 T00330016  RH  089%=      5-min Rain = 0
KNH1 150531Z 19012G17KT 03/02 A3014 RMK A01 T00330016  RH  089%=      5-min Rain = 0
KNH1 150532Z 19013KT 03/02 A3014 RMK A01 T00330016  RH  089%=      5-min Rain = 0
KNH1 150533Z 19015KT 03/02 A3014 RMK A01 T00330016  RH  089%=      5-min Rain = 0
KNH1 150534Z 19014KT 03/02 A3014 RMK A01 T00330017  RH  089%=      5-min Rain = 0
KNH1 150535Z 19013KT 03/02 A3014 RMK A01 T00340017  RH  089%=      5-min Rain = 0
KNH1 150536Z 19014KT 03/02 A3014 RMK A01 T00330016  RH  089%=      5-min Rain = 0
KNH1 150537Z 19013KT 03/02 A3014 RMK A01 T00330016  RH  089%=      5-min Rain = 0
KNH1 150538Z 20013KT 03/02 A3014 RMK A01 T00330017  RH  089%=      5-min Rain = 0
KNH1 150539Z 20014KT 03/02 A3014 RMK A01 T00330016  RH  089%=      5-min Rain = 0
KNH1 150540Z 19013G18KT 03/02 A3013 RMK A01 T00330016  RH  089%=      5-min Rain = 0
KNH1 150541Z 19012KT 03/02 A3014 RMK A01 T00330016  RH  089%=      5-min Rain = 0
KNH1 150542Z 20012KT 03/02 A3013 RMK A01 T00330016  RH  089%=      5-min Rain = 0
KNH1 150543Z 20014KT 03/02 A3013 RMK A01 T00330016  RH  089%=      5-min Rain = 0
KNH1 150544Z 20013KT 03/02 A3013 RMK A01 T00320016  RH  089%=      5-min Rain = 0
KNH1 150545Z 20013KT 03/02 A3013 RMK A01 T00320016  RH  089%=      5-min Rain = 0
KNH1 150546Z 20013KT 03/02 A3013 RMK A01 T00320016  RH  089%=      5-min Rain = 0
KNH1 150547Z 20015KT 03/02 A3013 RMK A01 T00320016  RH  089%=      5-min Rain = 0
KNH1 150548Z 20014KT 03/02 A3013 RMK A01 T00320016  RH  089%=      5-min Rain = 0
KNH1 150549Z 20014KT 03/02 A3013 RMK A01 T00320016  RH  089%=      5-min Rain = 0
KNH1 150550Z 20014KT 03/02 A3013 RMK A01 T00320016  RH  089%=      5-min Rain = 0
KNH1 150551Z 20013KT 03/02 A3013 RMK A01 T00320016  RH  089%=      5-min Rain = 0
KNH1 150552Z 20014KT 03/02 A3013 RMK A01 T00310015  RH  089%=      5-min Rain = 0
KNH1 150553Z 19015KT 03/02 A3013 RMK A01 T00310015  RH  089%=      5-min Rain = 0
KNH1 150554Z 20016KT 03/02 A3013 RMK A01 T00310016  RH  090%=      5-min Rain = 0
KNH1 150555Z 19015KT 03/02 A3013 RMK A01 T00320016  RH  089%=      5-min Rain = 0
KNH1 150556Z 20015KT 03/02 A3013 RMK A01 T00320016  RH  089%=      5-min Rain = 0
KNH1 150557Z 19015KT 03/02 A3013 RMK A01 T00320016  RH  089%=      5-min Rain = 0
KNH1 150558Z 20015KT 03/02 A3013 RMK A01 T00320016  RH  089%=      5-min Rain = 0
KNH1 150559Z 19013KT 03/02 A3013 RMK A01 T00320016  RH  089%=      5-min Rain = 0

Page generated in 0.084 seconds.